Time,TemperatureF,DewpointF,PressureIn,WindDirection,WindDirectionDegrees,WindSpeedMPH,WindSpeedGustMPH,Humidity,HourlyPrecipIn,Conditions,Clouds,dailyrainin,SoftwareType,DateUTC
2013-02-08 00:00:00,68.7,67.3,29.94,SW,225,7.0,9.0,95,0.00,,,1.81,meteohub,2013-02-08 05:00:00,
2013-02-08 00:02:00,68.7,67.5,29.93,SW,225,7.0,11.0,96,0.04,,,1.84,meteohub,2013-02-08 05:02:00,
2013-02-08 00:04:00,68.7,67.5,29.94,SW,225,8.0,11.0,96,0.04,,,1.84,meteohub,2013-02-08 05:04:00,
2013-02-08 00:05:00,68.7,67.3,29.93,SW,225,8.0,11.0,95,0.04,,,0.00,meteohub,2013-02-08 05:05:00,
2013-02-08 00:08:00,68.7,67.3,29.93,South,180,5.0,11.0,95,0.04,,,0.00,meteohub,2013-02-08 05:08:00,
2013-02-08 00:09:00,68.7,67.3,29.93,South,180,9.0,11.0,95,0.04,,,0.00,meteohub,2013-02-08 05:09:00,
2013-02-08 00:10:00,68.7,67.3,29.93,South,180,5.0,11.0,95,0.04,,,0.00,meteohub,2013-02-08 05:10:00,
2013-02-08 00:12:00,68.7,67.3,29.93,SW,225,6.0,11.0,95,0.04,,,0.00,meteohub,2013-02-08 05:12:00,
2013-02-08 00:14:00,68.5,67.1,29.94,SW,225,6.0,11.0,95,0.04,,,0.00,meteohub,2013-02-08 05:14:00,
2013-02-08 00:15:00,68.5,67.1,29.93,SW,225,9.0,9.0,95,0.04,,,0.00,meteohub,2013-02-08 05:15:00,
2013-02-08 00:16:00,68.5,67.1,29.94,South,180,5.0,9.0,95,0.04,,,0.00,meteohub,2013-02-08 05:16:00,
2013-02-08 00:17:00,68.5,67.1,29.94,SW,225,5.0,9.0,95,0.04,,,0.00,meteohub,2013-02-08 05:17:00,
2013-02-08 00:20:00,68.5,67.1,29.94,WSW,248,6.0,9.0,95,0.04,,,0.00,meteohub,2013-02-08 05:20:00,
2013-02-08 00:22:00,68.4,66.9,29.94,SW,225,10.0,10.0,95,0.04,,,0.00,meteohub,2013-02-08 05:22:00,
2013-02-08 00:23:00,68.4,66.9,29.94,SW,225,5.0,9.0,95,0.04,,,0.00,meteohub,2013-02-08 05:23:00,
2013-02-08 00:25:00,68.4,66.9,29.93,SW,225,8.0,10.0,95,0.04,,,0.00,meteohub,2013-02-08 05:25:00,
2013-02-08 00:27:00,68.4,66.9,29.94,SW,225,6.0,10.0,95,0.04,,,0.00,meteohub,2013-02-08 05:27:00,
2013-02-08 00:28:00,68.4,66.9,29.93,SW,225,8.0,10.0,95,0.04,,,0.00,meteohub,2013-02-08 05:28:00,
2013-02-08 00:30:00,68.2,66.7,29.93,South,180,9.0,10.0,95,0.04,,,0.00,meteohub,2013-02-08 05:30:00,
2013-02-08 00:33:00,68.2,66.7,29.93,SW,225,4.0,10.0,95,0.04,,,0.00,meteohub,2013-02-08 05:33:00,
2013-02-08 00:35:00,68.2,66.7,29.93,South,180,4.0,10.0,95,0.04,,,0.00,meteohub,2013-02-08 05:35:00,
2013-02-08 00:36:00,68.2,66.7,29.93,SW,225,8.0,10.0,95,0.04,,,0.00,meteohub,2013-02-08 05:36:00,
2013-02-08 00:38:00,68.4,66.9,29.93,SE,135,4.0,10.0,95,0.04,,,0.00,meteohub,2013-02-08 05:38:00,
2013-02-08 00:40:00,68.4,66.9,29.93,SW,225,8.0,9.0,95,0.04,,,0.00,meteohub,2013-02-08 05:40:00,
2013-02-08 00:41:00,68.4,66.9,29.93,SW,225,8.0,9.0,95,0.04,,,0.00,meteohub,2013-02-08 05:41:00,
2013-02-08 00:43:00,68.4,66.6,29.93,South,180,8.0,9.0,94,0.04,,,0.00,meteohub,2013-02-08 05:43:00,
2013-02-08 00:47:00,68.4,66.6,29.93,South,180,7.0,9.0,94,0.04,,,0.00,meteohub,2013-02-08 05:47:00,
2013-02-08 00:48:00,68.5,66.7,29.93,NW,315,7.0,9.0,94,0.04,,,0.00,meteohub,2013-02-08 05:48:00,
2013-02-08 00:49:00,68.5,66.7,29.93,SW,225,6.0,9.0,94,0.04,,,0.00,meteohub,2013-02-08 05:49:00,
2013-02-08 00:53:00,68.5,66.7,29.92,SW,225,6.0,9.0,94,0.04,,,0.00,meteohub,2013-02-08 05:53:00,
2013-02-08 00:54:00,68.5,66.7,29.93,SW,225,7.0,9.0,94,0.04,,,0.00,meteohub,2013-02-08 05:54:00,
2013-02-08 00:55:00,68.5,66.4,29.93,West,270,4.0,11.0,93,0.00,,,0.00,meteohub,2013-02-08 05:55:00,
2013-02-08 00:58:00,68.5,66.4,29.93,South,180,5.0,11.0,93,0.00,,,0.00,meteohub,2013-02-08 05:58:00,
2013-02-08 00:59:00,68.5,66.4,29.93,South,180,5.0,11.0,93,0.00,,,0.00,meteohub,2013-02-08 05:59:00,
2013-02-08 01:00:00,68.5,66.4,29.93,SW,225,7.0,11.0,93,0.00,,,0.00,meteohub,2013-02-08 06:00:00,
2013-02-08 01:05:00,68.5,66.4,29.93,SW,225,8.0,11.0,93,0.00,,,0.00,meteohub,2013-02-08 06:05:00,
2013-02-08 01:06:00,68.5,66.4,29.93,South,180,4.0,11.0,93,0.00,,,0.00,meteohub,2013-02-08 06:06:00,
2013-02-08 01:07:00,68.5,66.4,29.93,West,270,4.0,11.0,93,0.00,,,0.00,meteohub,2013-02-08 06:07:00,
2013-02-08 01:10:00,68.5,66.4,29.93,SW,225,8.0,11.0,93,0.00,,,0.00,meteohub,2013-02-08 06:10:00,
2013-02-08 01:11:00,68.5,66.4,29.93,South,180,9.0,9.0,93,0.00,,,0.00,meteohub,2013-02-08 06:11:00,
2013-02-08 01:12:00,68.5,66.4,29.93,South,180,9.0,9.0,93,0.00,,,0.00,meteohub,2013-02-08 06:12:00,
2013-02-08 01:17:00,68.5,66.4,29.94,SW,225,6.0,10.0,93,0.00,,,0.00,meteohub,2013-02-08 06:17:00,
2013-02-08 01:18:00,68.5,66.4,29.93,SW,225,4.0,10.0,93,0.00,,,0.00,meteohub,2013-02-08 06:18:00,
2013-02-08 01:19:00,68.5,66.4,29.93,North,0,5.0,10.0,93,0.00,,,0.00,meteohub,2013-02-08 06:19:00,
2013-02-08 01:23:00,68.5,66.4,29.93,SW,225,6.0,10.0,93,0.00,,,0.00,meteohub,2013-02-08 06:23:00,
2013-02-08 01:24:00,68.5,66.4,29.93,West,270,6.0,10.0,93,0.00,,,0.00,meteohub,2013-02-08 06:24:00,
2013-02-08 01:25:00,68.5,66.4,29.93,South,180,8.0,12.0,93,0.00,,,0.00,meteohub,2013-02-08 06:25:00,
2013-02-08 01:26:00,68.5,66.4,29.93,SW,225,14.0,14.0,93,0.00,,,0.00,meteohub,2013-02-08 06:26:00,
2013-02-08 01:30:00,68.5,66.4,29.93,NW,315,8.0,12.0,93,0.00,,,0.00,meteohub,2013-02-08 06:30:00,
2013-02-08 01:31:00,68.5,66.4,29.93,SW,225,8.0,14.0,93,0.00,,,0.00,meteohub,2013-02-08 06:31:00,
2013-02-08 01:35:00,68.4,66.6,29.93,South,180,8.0,14.0,94,0.00,,,0.00,meteohub,2013-02-08 06:35:00,
2013-02-08 01:36:00,68.4,66.6,29.93,South,180,8.0,14.0,94,0.00,,,0.00,meteohub,2013-02-08 06:36:00,
2013-02-08 01:37:00,68.4,66.6,29.93,West,270,8.0,14.0,94,0.00,,,0.00,meteohub,2013-02-08 06:37:00,
2013-02-08 01:40:00,68.4,66.6,29.93,SW,225,8.0,14.0,94,0.00,,,0.00,meteohub,2013-02-08 06:40:00,
2013-02-08 01:41:00,68.4,66.6,29.94,North,0,8.0,14.0,94,0.00,,,0.00,meteohub,2013-02-08 06:41:00,
2013-02-08 01:42:00,68.4,66.6,29.93,West,270,11.0,14.0,94,0.00,,,0.00,meteohub,2013-02-08 06:42:00,
2013-02-08 01:44:00,68.2,66.7,29.93,West,270,10.0,14.0,95,0.00,,,0.00,meteohub,2013-02-08 06:44:00,
2013-02-08 01:46:00,68.2,66.7,29.93,SW,225,8.0,11.0,95,0.00,,,0.00,meteohub,2013-02-08 06:46:00,
2013-02-08 01:47:00,68.2,66.7,29.94,SW,225,8.0,11.0,95,0.00,,,0.00,meteohub,2013-02-08 06:47:00,
2013-02-08 01:48:00,68.2,66.7,29.93,SW,225,7.0,11.0,95,0.00,,,0.00,meteohub,2013-02-08 06:48:00,
2013-02-08 01:49:00,68.2,66.7,29.94,NW,315,7.0,11.0,95,0.00,,,0.00,meteohub,2013-02-08 06:49:00,
2013-02-08 01:52:00,68.2,66.7,29.93,North,0,6.0,11.0,95,0.00,,,0.00,meteohub,2013-02-08 06:52:00,
2013-02-08 01:54:00,68.2,66.7,29.93,West,270,8.0,11.0,95,0.00,,,0.00,meteohub,2013-02-08 06:54:00,
2013-02-08 01:55:00,68.2,66.7,29.93,West,270,7.0,11.0,95,0.00,,,0.00,meteohub,2013-02-08 06:55:00,
2013-02-08 01:58:00,68.2,66.7,29.93,South,180,11.0,14.0,95,0.00,,,0.00,meteohub,2013-02-08 06:58:00,
2013-02-08 02:00:00,68.2,66.7,29.93,South,180,10.0,14.0,95,0.00,,,0.00,meteohub,2013-02-08 07:00:00,
2013-02-08 02:01:00,68.2,66.7,29.93,West,270,5.0,14.0,95,0.00,,,0.00,meteohub,2013-02-08 07:01:00,
2013-02-08 02:04:00,68.2,66.9,29.93,SW,225,10.0,14.0,96,0.00,,,0.00,meteohub,2013-02-08 07:04:00,
2013-02-08 02:05:00,68.2,66.9,29.93,NW,315,4.0,14.0,96,0.00,,,0.00,meteohub,2013-02-08 07:05:00,
2013-02-08 02:06:00,68.0,66.7,29.93,NW,315,11.0,14.0,96,0.00,,,0.00,meteohub,2013-02-08 07:06:00,
2013-02-08 02:07:00,68.0,66.7,29.93,West,270,8.0,14.0,96,0.00,,,0.00,meteohub,2013-02-08 07:07:00,
2013-02-08 02:10:00,68.0,66.7,29.93,North,0,8.0,11.0,96,0.00,,,0.00,meteohub,2013-02-08 07:10:00,
2013-02-08 02:11:00,68.0,66.7,29.93,SW,225,11.0,11.0,96,0.00,,,0.00,meteohub,2013-02-08 07:11:00,
2013-02-08 02:12:00,68.0,66.7,29.93,SW,225,10.0,11.0,96,0.00,,,0.00,meteohub,2013-02-08 07:12:00,
2013-02-08 02:17:00,68.0,66.7,29.93,SW,225,9.0,11.0,96,0.00,,,0.00,meteohub,2013-02-08 07:17:00,
2013-02-08 02:18:00,68.0,66.6,29.93,SW,225,5.0,11.0,95,0.00,,,0.00,meteohub,2013-02-08 07:18:00,
2013-02-08 02:20:00,68.0,66.6,29.93,North,0,8.0,11.0,95,0.00,,,0.00,meteohub,2013-02-08 07:20:00,
2013-02-08 02:22:00,68.0,66.6,29.93,West,270,8.0,11.0,95,0.00,,,0.00,meteohub,2013-02-08 07:22:00,
2013-02-08 02:23:00,68.0,66.6,29.93,SW,225,8.0,11.0,95,0.00,,,0.00,meteohub,2013-02-08 07:23:00,
2013-02-08 02:25:00,68.0,66.6,29.94,NW,315,7.0,11.0,95,0.00,,,0.00,meteohub,2013-02-08 07:25:00,
2013-02-08 02:26:00,68.0,66.6,29.93,NW,315,7.0,11.0,95,0.00,,,0.00,meteohub,2013-02-08 07:26:00,
2013-02-08 02:28:00,67.8,66.6,29.93,SW,225,7.0,11.0,96,0.00,,,0.00,meteohub,2013-02-08 07:28:00,
2013-02-08 02:29:00,67.8,66.6,29.93,SW,225,7.0,11.0,96,0.00,,,0.00,meteohub,2013-02-08 07:29:00,
2013-02-08 02:32:00,67.8,66.6,29.93,SW,225,8.0,11.0,96,0.00,,,0.00,meteohub,2013-02-08 07:32:00,
2013-02-08 02:33:00,67.8,66.6,29.93,West,270,8.0,11.0,96,0.00,,,0.00,meteohub,2013-02-08 07:33:00,
2013-02-08 02:36:00,67.8,66.6,29.93,SW,225,7.0,9.0,96,0.00,,,0.00,meteohub,2013-02-08 07:36:00,
2013-02-08 02:37:00,67.8,66.6,29.93,West,270,7.0,9.0,96,0.00,,,0.00,meteohub,2013-02-08 07:37:00,
2013-02-08 02:38:00,67.8,66.6,29.92,SW,225,6.0,9.0,96,0.00,,,0.00,meteohub,2013-02-08 07:38:00,
2013-02-08 02:40:00,67.8,66.6,29.93,NW,315,8.0,9.0,96,0.00,,,0.00,meteohub,2013-02-08 07:40:00,
2013-02-08 02:43:00,67.8,66.6,29.92,West,270,12.0,12.0,96,0.00,,,0.00,meteohub,2013-02-08 07:43:00,
2013-02-08 02:44:00,67.8,66.6,29.93,West,270,8.0,9.0,96,0.00,,,0.00,meteohub,2013-02-08 07:44:00,
2013-02-08 02:45:00,67.8,66.6,29.92,South,180,10.0,12.0,96,0.00,,,0.00,meteohub,2013-02-08 07:45:00,
2013-02-08 02:46:00,67.8,66.6,29.93,West,270,10.0,12.0,96,0.00,,,0.00,meteohub,2013-02-08 07:46:00,
2013-02-08 02:49:00,67.8,66.6,29.92,NW,315,8.0,12.0,96,0.00,,,0.00,meteohub,2013-02-08 07:49:00,
2013-02-08 02:50:00,67.8,66.6,29.93,SW,225,12.0,12.0,96,0.00,,,0.00,meteohub,2013-02-08 07:50:00,
2013-02-08 02:51:00,67.8,66.6,29.92,South,180,8.0,12.0,96,0.00,,,0.00,meteohub,2013-02-08 07:51:00,
2013-02-08 02:55:00,67.8,66.6,29.93,NW,315,9.0,12.0,96,0.00,,,0.00,meteohub,2013-02-08 07:55:00,
2013-02-08 02:57:00,67.8,66.6,29.93,SW,225,10.0,12.0,96,0.00,,,0.00,meteohub,2013-02-08 07:57:00,
2013-02-08 03:02:00,68.0,66.7,29.93,West,270,12.0,12.0,96,0.00,,,0.00,meteohub,2013-02-08 08:02:00,
2013-02-08 03:03:00,68.0,66.7,29.93,SW,225,10.0,12.0,96,0.00,,,0.00,meteohub,2013-02-08 08:03:00,
2013-02-08 03:06:00,68.2,66.9,29.93,SW,225,12.0,14.0,96,0.00,,,0.00,meteohub,2013-02-08 08:06:00,
2013-02-08 03:07:00,68.2,66.9,29.93,SW,225,10.0,14.0,96,0.00,,,0.00,meteohub,2013-02-08 08:07:00,
2013-02-08 03:08:00,68.2,66.9,29.93,SW,225,10.0,14.0,96,0.00,,,0.00,meteohub,2013-02-08 08:08:00,
2013-02-08 03:09:00,68.2,66.9,29.93,SW,225,7.0,14.0,96,0.00,,,0.00,meteohub,2013-02-08 08:09:00,
2013-02-08 03:12:00,68.2,66.9,29.93,West,270,4.0,14.0,96,0.00,,,0.00,meteohub,2013-02-08 08:12:00,
2013-02-08 03:13:00,68.2,66.9,29.94,West,270,8.0,14.0,96,0.00,,,0.00,meteohub,2013-02-08 08:13:00,
2013-02-08 03:14:00,68.2,66.9,29.94,West,270,5.0,14.0,96,0.00,,,0.00,meteohub,2013-02-08 08:14:00,
2013-02-08 03:18:00,68.2,66.9,29.94,West,270,9.0,14.0,96,0.00,,,0.00,meteohub,2013-02-08 08:18:00,
2013-02-08 03:20:00,68.2,66.9,29.94,SW,225,8.0,12.0,96,0.00,,,0.00,meteohub,2013-02-08 08:20:00,
2013-02-08 03:22:00,68.2,66.9,29.94,South,180,3.0,12.0,96,0.00,,,0.00,meteohub,2013-02-08 08:22:00,
2013-02-08 03:24:00,68.2,66.9,29.94,West,270,6.0,12.0,96,0.00,,,0.00,meteohub,2013-02-08 08:24:00,
2013-02-08 03:25:00,68.0,66.7,29.94,West,270,6.0,12.0,96,0.00,,,0.00,meteohub,2013-02-08 08:25:00,
2013-02-08 03:27:00,68.0,66.7,29.94,West,270,8.0,11.0,96,0.00,,,0.00,meteohub,2013-02-08 08:27:00,
2013-02-08 03:30:00,68.0,66.7,29.93,West,270,7.0,11.0,96,0.00,,,0.00,meteohub,2013-02-08 08:30:00,
2013-02-08 03:31:00,68.0,66.7,29.94,West,270,4.0,11.0,96,0.00,,,0.00,meteohub,2013-02-08 08:31:00,
2013-02-08 03:32:00,68.0,66.7,29.94,SE,135,5.0,11.0,96,0.00,,,0.00,meteohub,2013-02-08 08:32:00,
2013-02-08 03:36:00,68.0,67.1,29.94,SW,225,7.0,11.0,97,0.00,,,0.00,meteohub,2013-02-08 08:36:00,
2013-02-08 03:37:00,68.0,67.1,29.94,West,270,8.0,11.0,97,0.00,,,0.00,meteohub,2013-02-08 08:37:00,
2013-02-08 03:38:00,68.0,67.1,29.94,North,0,6.0,11.0,97,0.00,,,0.00,meteohub,2013-02-08 08:38:00,
2013-02-08 03:42:00,68.0,67.1,29.94,West,270,5.0,9.0,97,0.00,,,0.00,meteohub,2013-02-08 08:42:00,
2013-02-08 03:45:00,67.8,67.3,29.94,SW,225,5.0,9.0,98,0.00,,,0.00,meteohub,2013-02-08 08:45:00,
2013-02-08 03:47:00,67.8,67.3,29.94,SW,225,8.0,9.0,98,0.00,,,0.00,meteohub,2013-02-08 08:47:00,
2013-02-08 03:50:00,67.8,67.3,29.94,SW,225,6.0,9.0,98,0.00,,,0.00,meteohub,2013-02-08 08:50:00,
2013-02-08 03:52:00,68.0,67.1,29.94,NW,315,5.0,8.0,97,0.00,,,0.00,meteohub,2013-02-08 08:52:00,
2013-02-08 03:53:00,68.0,67.1,29.94,West,270,6.0,8.0,97,0.00,,,0.00,meteohub,2013-02-08 08:53:00,
2013-02-08 03:56:00,68.0,67.1,29.94,SW,225,4.0,8.0,97,0.00,,,0.00,meteohub,2013-02-08 08:56:00,
2013-02-08 03:57:00,68.0,67.1,29.94,NW,315,6.0,8.0,97,0.00,,,0.00,meteohub,2013-02-08 08:57:00,
2013-02-08 03:58:00,68.0,67.1,29.94,WSW,248,6.0,8.0,97,0.00,,,0.00,meteohub,2013-02-08 08:58:00,
2013-02-08 04:01:00,68.0,67.1,29.94,West,270,8.0,8.0,97,0.00,,,0.00,meteohub,2013-02-08 09:01:00,
2013-02-08 04:02:00,68.0,67.1,29.94,SW,225,7.0,8.0,97,0.00,,,0.00,meteohub,2013-02-08 09:02:00,
2013-02-08 04:03:00,68.0,67.1,29.94,SW,225,7.0,8.0,97,0.00,,,0.00,meteohub,2013-02-08 09:03:00,
2013-02-08 04:06:00,68.0,67.1,29.94,NW,315,7.0,8.0,97,0.00,,,0.00,meteohub,2013-02-08 09:06:00,
2013-02-08 04:08:00,68.0,67.1,29.94,West,270,5.0,8.0,97,0.00,,,0.00,meteohub,2013-02-08 09:08:00,
2013-02-08 04:13:00,68.0,67.1,29.94,NW,315,4.0,8.0,97,0.00,,,0.00,meteohub,2013-02-08 09:13:00,
2013-02-08 04:14:00,68.0,67.1,29.94,West,270,3.0,8.0,97,0.00,,,0.00,meteohub,2013-02-08 09:14:00,
2013-02-08 04:18:00,68.0,67.5,29.94,West,270,4.0,8.0,98,0.00,,,0.00,meteohub,2013-02-08 09:18:00,
2013-02-08 04:19:00,68.0,67.5,29.95,South,180,4.0,8.0,98,0.00,,,0.00,meteohub,2013-02-08 09:19:00,
2013-02-08 04:20:00,68.0,67.5,29.94,NW,315,3.0,8.0,98,0.00,,,0.00,meteohub,2013-02-08 09:20:00,
2013-02-08 04:24:00,68.0,67.5,29.94,NW,315,4.0,7.0,98,0.00,,,0.00,meteohub,2013-02-08 09:24:00,
2013-02-08 04:25:00,68.0,67.5,29.94,NW,315,4.0,7.0,98,0.00,,,0.00,meteohub,2013-02-08 09:25:00,
2013-02-08 04:26:00,68.0,67.5,29.94,NW,315,4.0,6.0,98,0.00,,,0.00,meteohub,2013-02-08 09:26:00,
2013-02-08 04:30:00,68.0,67.5,29.94,NW,315,8.0,8.0,98,0.00,,,0.00,meteohub,2013-02-08 09:30:00,
2013-02-08 04:31:00,68.0,67.5,29.94,East,90,6.0,6.0,98,0.00,,,0.00,meteohub,2013-02-08 09:31:00,
2013-02-08 04:34:00,68.0,67.5,29.94,West,270,4.0,5.0,98,0.00,,,0.00,meteohub,2013-02-08 09:34:00,
2013-02-08 04:36:00,67.8,67.5,29.94,NW,315,3.0,8.0,99,0.00,,,0.00,meteohub,2013-02-08 09:36:00,
2013-02-08 04:40:00,67.8,67.5,29.95,West,270,2.0,8.0,99,0.00,,,0.00,meteohub,2013-02-08 09:40:00,
2013-02-08 04:41:00,67.8,67.5,29.95,West,270,2.0,8.0,99,0.00,,,0.00,meteohub,2013-02-08 09:41:00,
2013-02-08 04:44:00,67.8,67.5,29.94,West,270,4.0,8.0,99,0.00,,,0.00,meteohub,2013-02-08 09:44:00,
2013-02-08 04:46:00,67.8,67.5,29.95,West,270,4.0,8.0,99,0.00,,,0.00,meteohub,2013-02-08 09:46:00,
2013-02-08 04:47:00,67.8,67.5,29.95,West,270,6.0,8.0,99,0.00,,,0.00,meteohub,2013-02-08 09:47:00,
2013-02-08 04:48:00,67.8,67.5,29.95,SW,225,4.0,8.0,99,0.00,,,0.00,meteohub,2013-02-08 09:48:00,
2013-02-08 04:52:00,67.8,67.5,29.95,NW,315,4.0,6.0,99,0.00,,,0.00,meteohub,2013-02-08 09:52:00,
2013-02-08 04:53:00,67.8,67.5,29.95,NW,315,3.0,6.0,99,0.00,,,0.00,meteohub,2013-02-08 09:53:00,
2013-02-08 04:54:00,67.8,67.5,29.95,NW,315,2.0,6.0,99,0.00,,,0.00,meteohub,2013-02-08 09:54:00,
2013-02-08 04:55:00,67.6,67.3,29.95,North,0,5.0,6.0,99,0.00,,,0.00,meteohub,2013-02-08 09:55:00,
2013-02-08 04:57:00,67.6,67.3,29.95,SW,225,3.0,6.0,99,0.00,,,0.00,meteohub,2013-02-08 09:57:00,
2013-02-08 05:00:00,67.6,67.3,29.95,West,270,2.0,6.0,99,0.00,,,0.00,meteohub,2013-02-08 10:00:00,
2013-02-08 05:02:00,67.6,67.3,29.95,NW,315,2.0,6.0,99,0.00,,,0.00,meteohub,2013-02-08 10:02:00,
2013-02-08 05:03:00,67.5,67.1,29.95,NW,315,2.0,6.0,99,0.00,,,0.00,meteohub,2013-02-08 10:03:00,
2013-02-08 05:06:00,67.5,67.1,29.96,North,0,1.0,5.0,99,0.00,,,0.00,meteohub,2013-02-08 10:06:00,
2013-02-08 05:07:00,67.5,67.1,29.96,NE,45,2.0,5.0,99,0.00,,,0.00,meteohub,2013-02-08 10:07:00,
2013-02-08 05:08:00,67.3,66.9,29.96,NW,315,4.0,5.0,99,0.00,,,0.00,meteohub,2013-02-08 10:08:00,
2013-02-08 05:10:00,67.3,66.9,29.96,West,270,3.0,5.0,99,0.00,,,0.00,meteohub,2013-02-08 10:10:00,
2013-02-08 05:11:00,67.3,66.9,29.96,West,270,2.0,4.0,99,0.00,,,0.00,meteohub,2013-02-08 10:11:00,
2013-02-08 05:12:00,67.3,66.9,29.96,West,270,2.0,4.0,99,0.00,,,0.00,meteohub,2013-02-08 10:12:00,
2013-02-08 05:14:00,67.1,66.7,29.96,North,0,2.0,4.0,99,0.00,,,0.00,meteohub,2013-02-08 10:14:00,
2013-02-08 05:15:00,67.1,66.7,29.95,NW,315,2.0,4.0,99,0.00,,,0.00,meteohub,2013-02-08 10:15:00,
2013-02-08 05:16:00,67.1,66.7,29.96,North,0,1.0,4.0,99,0.00,,,0.00,meteohub,2013-02-08 10:16:00,
2013-02-08 05:18:00,67.1,66.7,29.96,NW,315,2.0,4.0,99,0.00,,,0.00,meteohub,2013-02-08 10:18:00,
2013-02-08 05:20:00,67.1,66.7,29.96,NW,315,2.0,4.0,99,0.00,,,0.00,meteohub,2013-02-08 10:20:00,
2013-02-08 05:21:00,66.9,66.6,29.96,North,0,2.0,4.0,99,0.00,,,0.00,meteohub,2013-02-08 10:21:00,
2013-02-08 05:22:00,66.9,66.6,29.96,North,0,2.0,4.0,99,0.00,,,0.00,meteohub,2013-02-08 10:22:00,
2013-02-08 05:26:00,66.9,66.6,29.96,NW,315,2.0,3.0,99,0.00,,,0.00,meteohub,2013-02-08 10:26:00,
2013-02-08 05:27:00,66.9,66.6,29.96,North,0,2.0,3.0,99,0.00,,,0.00,meteohub,2013-02-08 10:27:00,
2013-02-08 05:28:00,66.9,66.6,29.96,North,0,2.0,3.0,99,0.00,,,0.00,meteohub,2013-02-08 10:28:00,
2013-02-08 05:31:00,66.7,66.4,29.96,NW,315,2.0,2.0,99,0.00,,,0.00,meteohub,2013-02-08 10:31:00,
2013-02-08 05:32:00,66.7,66.4,29.96,NW,315,1.0,2.0,99,0.00,,,0.00,meteohub,2013-02-08 10:32:00,
2013-02-08 05:33:00,66.6,66.0,29.96,NNW,338,2.0,2.0,98,0.00,,,0.00,meteohub,2013-02-08 10:33:00,
2013-02-08 05:37:00,66.6,66.0,29.96,West,270,1.0,2.0,98,0.00,,,0.00,meteohub,2013-02-08 10:37:00,
2013-02-08 05:38:00,66.6,66.0,29.96,NW,315,2.0,2.0,98,0.00,,,0.00,meteohub,2013-02-08 10:38:00,
2013-02-08 05:39:00,66.4,65.8,29.96,North,0,2.0,2.0,98,0.00,,,0.00,meteohub,2013-02-08 10:39:00,
2013-02-08 05:40:00,66.4,65.8,29.96,North,0,2.0,2.0,98,0.00,,,0.00,meteohub,2013-02-08 10:40:00,
2013-02-08 05:42:00,66.4,65.8,29.96,North,0,2.0,2.0,98,0.00,,,0.00,meteohub,2013-02-08 10:42:00,
2013-02-08 05:45:00,66.4,65.8,29.96,NW,315,2.0,2.0,98,0.00,,,0.00,meteohub,2013-02-08 10:45:00,
2013-02-08 05:47:00,66.4,65.8,29.96,North,0,2.0,2.0,98,0.00,,,0.00,meteohub,2013-02-08 10:47:00,
2013-02-08 05:50:00,66.4,65.8,29.97,NE,45,2.0,2.0,98,0.00,,,0.00,meteohub,2013-02-08 10:50:00,
2013-02-08 05:52:00,66.4,65.8,29.97,NW,315,2.0,2.0,98,0.00,,,0.00,meteohub,2013-02-08 10:52:00,
2013-02-08 05:53:00,66.4,65.8,29.97,NW,315,2.0,2.0,98,0.00,,,0.00,meteohub,2013-02-08 10:53:00,
2013-02-08 05:55:00,66.4,65.8,29.97,North,0,2.0,2.0,98,0.00,,,0.00,meteohub,2013-02-08 10:55:00,
2013-02-08 05:57:00,66.2,65.7,29.97,North,0,2.0,2.0,98,0.00,,,0.00,meteohub,2013-02-08 10:57:00,
2013-02-08 05:58:00,66.2,65.7,29.97,NW,315,1.0,2.0,98,0.00,,,0.00,meteohub,2013-02-08 10:58:00,
2013-02-08 06:01:00,66.0,65.7,29.97,NW,315,1.0,3.0,99,0.00,,,0.00,meteohub,2013-02-08 11:01:00,
2013-02-08 06:02:00,66.0,65.7,29.97,NW,315,0.0,3.0,99,0.00,,,0.00,meteohub,2013-02-08 11:02:00,
2013-02-08 06:03:00,66.0,65.7,29.97,South,180,2.0,3.0,99,0.00,,,0.00,meteohub,2013-02-08 11:03:00,
2013-02-08 06:04:00,66.0,65.7,29.97,NW,315,2.0,3.0,99,0.00,,,0.00,meteohub,2013-02-08 11:04:00,
2013-02-08 06:06:00,65.8,65.5,29.98,NW,315,2.0,3.0,99,0.00,,,0.00,meteohub,2013-02-08 11:06:00,
2013-02-08 06:08:00,65.8,65.5,29.98,North,0,2.0,3.0,99,0.00,,,0.00,meteohub,2013-02-08 11:08:00,
2013-02-08 06:09:00,65.8,65.5,29.98,NW,315,2.0,3.0,99,0.00,,,0.00,meteohub,2013-02-08 11:09:00,
2013-02-08 06:10:00,65.8,65.5,29.98,North,0,2.0,3.0,99,0.00,,,0.00,meteohub,2013-02-08 11:10:00,
2013-02-08 06:11:00,65.8,65.5,29.98,North,0,1.0,3.0,99,0.00,,,0.00,meteohub,2013-02-08 11:11:00,
2013-02-08 06:13:00,65.8,65.5,29.98,NE,45,2.0,3.0,99,0.00,,,0.00,meteohub,2013-02-08 11:13:00,
2013-02-08 06:14:00,65.7,65.3,29.98,North,0,1.0,3.0,99,0.00,,,0.00,meteohub,2013-02-08 11:14:00,
2013-02-08 06:15:00,65.7,65.3,29.98,North,0,2.0,2.0,99,0.00,,,0.00,meteohub,2013-02-08 11:15:00,
2013-02-08 06:16:00,65.7,65.3,29.98,North,0,2.0,2.0,99,0.00,,,0.00,meteohub,2013-02-08 11:16:00,
2013-02-08 06:19:00,65.7,65.3,29.98,North,0,2.0,2.0,99,0.00,,,0.00,meteohub,2013-02-08 11:19:00,
2013-02-08 06:21:00,65.5,65.1,29.99,NW,315,2.0,2.0,99,0.00,,,0.00,meteohub,2013-02-08 11:21:00,
2013-02-08 06:22:00,65.5,65.1,29.99,North,0,2.0,2.0,99,0.00,,,0.00,meteohub,2013-02-08 11:22:00,
2013-02-08 06:23:00,65.5,65.1,29.99,NW,315,2.0,2.0,99,0.00,,,0.00,meteohub,2013-02-08 11:23:00,
2013-02-08 06:25:00,65.5,65.1,29.99,North,0,2.0,3.0,99,0.00,,,0.00,meteohub,2013-02-08 11:25:00,
2013-02-08 06:26:00,65.5,65.1,29.99,NW,315,2.0,3.0,99,0.00,,,0.00,meteohub,2013-02-08 11:26:00,
2013-02-08 06:27:00,65.5,65.1,29.99,North,0,2.0,3.0,99,0.00,,,0.00,meteohub,2013-02-08 11:27:00,
2013-02-08 06:29:00,65.5,65.1,29.99,North,0,2.0,3.0,99,0.00,,,0.00,meteohub,2013-02-08 11:29:00,
2013-02-08 06:32:00,65.5,65.1,29.99,North,0,2.0,3.0,99,0.00,,,0.00,meteohub,2013-02-08 11:32:00,
2013-02-08 06:35:00,65.3,64.9,29.99,NW,315,2.0,2.0,99,0.00,,,0.00,meteohub,2013-02-08 11:35:00,
2013-02-08 06:37:00,65.3,64.9,29.99,North,0,3.0,3.0,99,0.00,,,0.00,meteohub,2013-02-08 11:37:00,
2013-02-08 06:39:00,65.3,64.9,29.99,North,0,2.0,2.0,99,0.00,,,0.00,meteohub,2013-02-08 11:39:00,
2013-02-08 06:40:00,65.3,64.9,29.99,North,0,2.0,4.0,99,0.00,,,0.00,meteohub,2013-02-08 11:40:00,
2013-02-08 06:41:00,65.3,64.9,29.99,NE,45,2.0,4.0,99,0.00,,,0.00,meteohub,2013-02-08 11:41:00,
2013-02-08 06:42:00,65.1,64.8,29.99,North,0,2.0,4.0,99,0.00,,,0.00,meteohub,2013-02-08 11:42:00,
2013-02-08 06:45:00,65.1,64.8,29.99,North,0,2.0,4.0,99,0.00,,,0.00,meteohub,2013-02-08 11:45:00,
2013-02-08 06:46:00,65.1,64.8,29.99,North,0,3.0,4.0,99,0.00,,,0.00,meteohub,2013-02-08 11:46:00,
2013-02-08 06:48:00,65.1,64.8,29.99,North,0,3.0,4.0,99,0.00,,,0.00,meteohub,2013-02-08 11:48:00,
2013-02-08 06:50:00,64.9,64.6,29.99,NE,45,2.0,4.0,99,0.00,,,0.00,meteohub,2013-02-08 11:50:00,
2013-02-08 06:51:00,64.9,64.6,29.99,North,0,3.0,3.0,99,0.00,,,0.00,meteohub,2013-02-08 11:51:00,
2013-02-08 06:53:00,64.9,64.6,29.99,NE,45,2.0,3.0,99,0.00,,,0.00,meteohub,2013-02-08 11:53:00,
2013-02-08 06:56:00,64.8,64.4,29.99,North,0,3.0,4.0,99,0.00,,,0.00,meteohub,2013-02-08 11:56:00,
2013-02-08 06:59:00,64.6,64.0,30.00,North,0,2.0,4.0,98,0.00,,,0.00,meteohub,2013-02-08 11:59:00,
2013-02-08 07:00:00,64.6,64.0,30.00,North,0,2.0,4.0,98,0.00,,,0.00,meteohub,2013-02-08 12:00:00,
2013-02-08 07:02:00,64.4,63.9,30.00,North,0,2.0,4.0,98,0.00,,,0.00,meteohub,2013-02-08 12:02:00,
2013-02-08 07:04:00,64.4,63.9,30.00,North,0,3.0,4.0,98,0.00,,,0.00,meteohub,2013-02-08 12:04:00,
2013-02-08 07:05:00,64.2,63.3,30.00,North,0,2.0,4.0,97,0.00,,,0.00,meteohub,2013-02-08 12:05:00,
2013-02-08 07:06:00,64.2,63.3,30.00,North,0,3.0,4.0,97,0.00,,,0.00,meteohub,2013-02-08 12:06:00,
2013-02-08 07:07:00,64.2,63.3,30.00,North,0,2.0,4.0,97,0.00,,,0.00,meteohub,2013-02-08 12:07:00,
2013-02-08 07:10:00,64.2,63.3,30.00,NE,45,2.0,3.0,97,0.00,,,0.00,meteohub,2013-02-08 12:10:00,
2013-02-08 07:11:00,64.2,63.3,30.00,NW,315,2.0,3.0,97,0.00,,,0.00,meteohub,2013-02-08 12:11:00,
2013-02-08 07:12:00,64.2,63.3,30.00,NE,45,2.0,3.0,97,0.00,,,0.00,meteohub,2013-02-08 12:12:00,
2013-02-08 07:16:00,64.0,63.0,30.01,NW,315,2.0,3.0,96,0.00,,,0.00,meteohub,2013-02-08 12:16:00,
2013-02-08 07:17:00,64.0,63.0,30.01,NW,315,2.0,3.0,96,0.00,,,0.00,meteohub,2013-02-08 12:17:00,
2013-02-08 07:22:00,64.0,63.0,30.00,NW,315,2.0,4.0,96,0.00,,,0.00,meteohub,2013-02-08 12:22:00,
2013-02-08 07:23:00,64.0,63.0,30.00,NE,45,2.0,4.0,96,0.00,,,0.00,meteohub,2013-02-08 12:23:00,
2013-02-08 07:27:00,63.9,62.8,30.01,North,0,3.0,4.0,96,0.00,,,0.00,meteohub,2013-02-08 12:27:00,
2013-02-08 07:28:00,63.9,62.8,30.01,North,0,3.0,4.0,96,0.00,,,0.00,meteohub,2013-02-08 12:28:00,
2013-02-08 07:30:00,63.9,62.8,30.01,North,0,2.0,4.0,96,0.00,,,0.00,meteohub,2013-02-08 12:30:00,
2013-02-08 07:31:00,63.9,62.8,30.01,North,0,2.0,4.0,96,0.00,,,0.00,meteohub,2013-02-08 12:31:00,
2013-02-08 07:33:00,63.9,62.8,30.01,NE,45,2.0,4.0,96,0.00,,,0.00,meteohub,2013-02-08 12:33:00,
2013-02-08 07:34:00,63.9,62.8,30.01,NE,45,2.0,4.0,96,0.00,,,0.00,meteohub,2013-02-08 12:34:00,
2013-02-08 07:35:00,63.9,62.8,30.01,North,0,2.0,4.0,96,0.00,,,0.00,meteohub,2013-02-08 12:35:00,
2013-02-08 07:37:00,63.9,62.8,30.01,NE,45,4.0,4.0,96,0.00,,,0.00,meteohub,2013-02-08 12:37:00,
2013-02-08 07:39:00,63.9,62.4,30.01,North,0,2.0,4.0,95,0.00,,,0.00,meteohub,2013-02-08 12:39:00,
2013-02-08 07:40:00,63.9,62.4,30.01,West,270,4.0,4.0,95,0.00,,,0.00,meteohub,2013-02-08 12:40:00,
2013-02-08 07:42:00,63.7,62.2,30.01,North,0,2.0,4.0,95,0.00,,,0.00,meteohub,2013-02-08 12:42:00,
2013-02-08 07:45:00,63.7,62.2,30.01,NE,45,2.0,4.0,95,0.00,,,0.00,meteohub,2013-02-08 12:45:00,
2013-02-08 07:47:00,63.7,62.2,30.01,North,0,2.0,4.0,95,0.00,,,0.00,meteohub,2013-02-08 12:47:00,
2013-02-08 07:49:00,63.7,62.2,30.01,North,0,2.0,4.0,95,0.00,,,0.00,meteohub,2013-02-08 12:49:00,
2013-02-08 07:51:00,63.7,62.2,30.01,NE,45,2.0,4.0,95,0.00,,,0.00,meteohub,2013-02-08 12:51:00,
2013-02-08 07:52:00,63.7,62.2,30.01,North,0,2.0,4.0,95,0.00,,,0.00,meteohub,2013-02-08 12:52:00,
2013-02-08 07:53:00,63.9,62.4,30.01,North,0,2.0,4.0,95,0.00,,,0.00,meteohub,2013-02-08 12:53:00,
2013-02-08 07:54:00,63.9,62.4,30.01,North,0,2.0,4.0,95,0.00,,,0.00,meteohub,2013-02-08 12:54:00,
2013-02-08 07:57:00,63.9,62.4,30.02,North,0,2.0,4.0,95,0.00,,,0.00,meteohub,2013-02-08 12:57:00,
2013-02-08 07:59:00,63.9,62.4,30.02,North,0,2.0,4.0,95,0.00,,,0.00,meteohub,2013-02-08 12:59:00,
2013-02-08 08:00:00,63.9,62.4,30.02,NE,45,2.0,4.0,95,0.00,,,0.00,meteohub,2013-02-08 13:00:00,
2013-02-08 08:02:00,63.9,62.1,30.01,North,0,2.0,3.0,94,0.00,,,0.00,meteohub,2013-02-08 13:02:00,
2013-02-08 08:05:00,63.9,62.1,30.02,NW,315,2.0,3.0,94,0.00,,,0.00,meteohub,2013-02-08 13:05:00,
2013-02-08 08:06:00,63.9,62.1,30.02,NW,315,2.0,3.0,94,0.00,,,0.00,meteohub,2013-02-08 13:06:00,
2013-02-08 08:08:00,63.9,62.1,30.02,NW,315,2.0,3.0,94,0.00,,,0.00,meteohub,2013-02-08 13:08:00,
2013-02-08 08:10:00,64.0,62.2,30.03,North,0,2.0,3.0,94,0.00,,,0.00,meteohub,2013-02-08 13:10:00,
2013-02-08 08:11:00,64.0,62.2,30.03,North,0,2.0,3.0,94,0.00,,,0.00,meteohub,2013-02-08 13:11:00,
2013-02-08 08:13:00,64.0,62.2,30.02,North,0,2.0,3.0,94,0.00,,,0.00,meteohub,2013-02-08 13:13:00,
2013-02-08 08:15:00,64.0,62.2,30.03,North,0,2.0,3.0,94,0.00,,,0.00,meteohub,2013-02-08 13:15:00,
2013-02-08 08:16:00,64.0,62.2,30.03,North,0,2.0,3.0,94,0.00,,,0.00,meteohub,2013-02-08 13:16:00,
2013-02-08 08:17:00,64.2,62.4,30.03,NW,315,2.0,3.0,94,0.00,,,0.00,meteohub,2013-02-08 13:17:00,
2013-02-08 08:18:00,64.2,62.4,30.03,North,0,3.0,3.0,94,0.00,,,0.00,meteohub,2013-02-08 13:18:00,
2013-02-08 08:21:00,64.2,62.4,30.03,NW,315,2.0,4.0,94,0.00,,,0.00,meteohub,2013-02-08 13:21:00,
2013-02-08 08:22:00,64.2,62.4,30.03,NW,315,2.0,4.0,94,0.00,,,0.00,meteohub,2013-02-08 13:22:00,
2013-02-08 08:24:00,64.2,62.4,30.03,North,0,3.0,4.0,94,0.00,,,0.00,meteohub,2013-02-08 13:24:00,
2013-02-08 08:27:00,64.4,62.6,30.03,North,0,2.0,4.0,94,0.00,,,0.00,meteohub,2013-02-08 13:27:00,
2013-02-08 08:29:00,64.8,63.0,30.03,North,0,3.0,4.0,94,0.00,,,0.00,meteohub,2013-02-08 13:29:00,
2013-02-08 08:30:00,64.8,63.0,30.03,North,0,3.0,4.0,94,0.00,,,0.00,meteohub,2013-02-08 13:30:00,
2013-02-08 08:34:00,65.1,63.0,30.03,North,0,3.0,4.0,93,0.00,,,0.00,meteohub,2013-02-08 13:34:00,
2013-02-08 08:35:00,65.3,63.1,30.03,North,0,2.0,3.0,93,0.00,,,0.00,meteohub,2013-02-08 13:35:00,
2013-02-08 08:36:00,65.3,63.1,30.03,North,0,2.0,3.0,93,0.00,,,0.00,meteohub,2013-02-08 13:36:00,
2013-02-08 08:37:00,65.5,63.3,30.03,West,270,2.0,3.0,93,0.00,,,0.00,meteohub,2013-02-08 13:37:00,
2013-02-08 08:39:00,65.7,63.3,30.03,North,0,2.0,3.0,92,0.00,,,0.00,meteohub,2013-02-08 13:39:00,
2013-02-08 08:40:00,65.7,63.3,30.03,West,270,2.0,3.0,92,0.00,,,0.00,meteohub,2013-02-08 13:40:00,
2013-02-08 08:42:00,65.8,63.5,30.03,North,0,2.0,3.0,92,0.00,,,0.00,meteohub,2013-02-08 13:42:00,
2013-02-08 08:44:00,66.0,63.7,30.03,NE,45,2.0,3.0,92,0.00,,,0.00,meteohub,2013-02-08 13:44:00,
2013-02-08 08:45:00,66.0,63.7,30.03,NE,45,2.0,3.0,92,0.00,,,0.00,meteohub,2013-02-08 13:45:00,
2013-02-08 08:48:00,66.2,63.1,30.03,North,0,2.0,3.0,90,0.00,,,0.00,meteohub,2013-02-08 13:48:00,
2013-02-08 08:49:00,66.4,63.3,30.03,NW,315,2.0,3.0,90,0.00,,,0.00,meteohub,2013-02-08 13:49:00,
2013-02-08 08:50:00,66.6,63.5,30.03,North,0,2.0,3.0,90,0.00,,,0.00,meteohub,2013-02-08 13:50:00,
2013-02-08 08:54:00,66.6,63.1,30.03,North,0,2.0,3.0,89,0.00,,,0.00,meteohub,2013-02-08 13:54:00,
2013-02-08 08:55:00,66.4,63.0,30.03,WNW,293,1.0,3.0,89,0.00,,,0.00,meteohub,2013-02-08 13:55:00,
2013-02-08 08:59:00,66.2,62.6,30.04,North,0,2.0,3.0,88,0.00,,,0.00,meteohub,2013-02-08 13:59:00,
2013-02-08 09:00:00,66.2,62.6,30.04,North,0,2.0,3.0,88,0.00,,,0.00,meteohub,2013-02-08 14:00:00,
2013-02-08 09:02:00,66.2,62.6,30.04,North,0,3.0,3.0,88,0.00,,,0.00,meteohub,2013-02-08 14:02:00,
2013-02-08 09:05:00,66.2,62.6,30.04,NE,45,2.0,3.0,88,0.00,,,0.00,meteohub,2013-02-08 14:05:00,
2013-02-08 09:06:00,66.2,62.6,30.04,North,0,2.0,3.0,88,0.00,,,0.00,meteohub,2013-02-08 14:06:00,
2013-02-08 09:08:00,66.4,62.8,30.04,North,0,2.0,3.0,88,0.00,,,0.00,meteohub,2013-02-08 14:08:00,
2013-02-08 09:10:00,66.6,63.0,30.04,NW,315,2.0,3.0,88,0.00,,,0.00,meteohub,2013-02-08 14:10:00,
2013-02-08 09:11:00,66.6,63.0,30.04,NW,315,2.0,3.0,88,0.00,,,0.00,meteohub,2013-02-08 14:11:00,
2013-02-08 09:13:00,66.7,63.1,30.04,NW,315,1.0,3.0,88,0.00,,,0.00,meteohub,2013-02-08 14:13:00,
2013-02-08 09:16:00,66.9,63.3,30.04,North,0,3.0,3.0,88,0.00,,,0.00,meteohub,2013-02-08 14:16:00,
2013-02-08 09:17:00,66.9,63.3,30.04,NW,315,2.0,3.0,88,0.00,,,0.00,meteohub,2013-02-08 14:17:00,
2013-02-08 09:19:00,67.1,63.1,30.04,North,0,2.0,3.0,87,0.00,,,0.00,meteohub,2013-02-08 14:19:00,
2013-02-08 09:23:00,67.1,63.1,30.04,North,0,2.0,3.0,87,0.00,,,0.00,meteohub,2013-02-08 14:23:00,
2013-02-08 09:24:00,67.1,63.1,30.04,NE,45,2.0,3.0,87,0.00,,,0.00,meteohub,2013-02-08 14:24:00,
2013-02-08 09:25:00,67.1,63.1,30.04,NE,45,2.0,3.0,87,0.00,,,0.00,meteohub,2013-02-08 14:25:00,
2013-02-08 09:26:00,67.3,63.0,30.04,North,0,3.0,3.0,86,0.00,,,0.00,meteohub,2013-02-08 14:26:00,
2013-02-08 09:28:00,67.3,63.0,30.04,North,0,2.0,3.0,86,0.00,,,0.00,meteohub,2013-02-08 14:28:00,
2013-02-08 09:30:00,67.5,63.1,30.04,North,0,2.0,3.0,86,0.00,,,0.00,meteohub,2013-02-08 14:30:00,
2013-02-08 09:31:00,67.5,63.1,30.04,East,90,2.0,3.0,86,0.00,,,0.00,meteohub,2013-02-08 14:31:00,
2013-02-08 09:33:00,67.6,63.3,30.04,North,0,2.0,3.0,86,0.00,,,0.00,meteohub,2013-02-08 14:33:00,
2013-02-08 09:35:00,67.6,63.3,30.04,North,0,2.0,3.0,86,0.00,,,0.00,meteohub,2013-02-08 14:35:00,
2013-02-08 09:37:00,67.6,63.0,30.04,North,0,3.0,3.0,85,0.00,,,0.00,meteohub,2013-02-08 14:37:00,
2013-02-08 09:38:00,67.8,63.1,30.04,North,0,2.0,3.0,85,0.00,,,0.00,meteohub,2013-02-08 14:38:00,
2013-02-08 09:39:00,67.8,63.1,30.04,North,0,2.0,3.0,85,0.00,,,0.00,meteohub,2013-02-08 14:39:00,
2013-02-08 09:40:00,67.8,63.1,30.04,North,0,2.0,3.0,85,0.00,,,0.00,meteohub,2013-02-08 14:40:00,
2013-02-08 09:44:00,68.2,63.1,30.04,NE,45,2.0,3.0,84,0.00,,,0.00,meteohub,2013-02-08 14:44:00,
2013-02-08 09:45:00,68.2,63.1,30.04,NE,45,2.0,3.0,84,0.00,,,0.00,meteohub,2013-02-08 14:45:00,
2013-02-08 09:46:00,68.2,63.1,30.04,NE,45,3.0,3.0,84,0.00,,,0.00,meteohub,2013-02-08 14:46:00,
2013-02-08 09:48:00,68.2,63.1,30.04,North,0,2.0,3.0,84,0.00,,,0.00,meteohub,2013-02-08 14:48:00,
2013-02-08 09:50:00,68.2,62.8,30.04,North,0,2.0,3.0,83,0.00,,,0.00,meteohub,2013-02-08 14:50:00,
2013-02-08 09:51:00,68.2,62.8,30.04,North,0,2.0,3.0,83,0.00,,,0.00,meteohub,2013-02-08 14:51:00,
2013-02-08 09:54:00,68.2,62.8,30.04,North,0,2.0,3.0,83,0.00,,,0.00,meteohub,2013-02-08 14:54:00,
2013-02-08 09:55:00,68.2,62.8,30.04,North,0,2.0,3.0,83,0.00,,,0.00,meteohub,2013-02-08 14:55:00,
2013-02-08 09:57:00,68.4,63.0,30.04,NE,45,2.0,3.0,83,0.00,,,0.00,meteohub,2013-02-08 14:57:00,
2013-02-08 10:00:00,68.5,63.5,30.04,SW,225,2.0,3.0,84,0.00,,,0.00,meteohub,2013-02-08 15:00:00,
2013-02-08 10:01:00,68.7,63.3,30.04,North,0,2.0,3.0,83,0.00,,,0.00,meteohub,2013-02-08 15:01:00,
2013-02-08 10:02:00,68.7,63.3,30.04,North,0,2.0,3.0,83,0.00,,,0.00,meteohub,2013-02-08 15:02:00,
2013-02-08 10:05:00,69.1,63.7,30.04,North,0,1.0,2.0,83,0.00,,,0.00,meteohub,2013-02-08 15:05:00,
2013-02-08 10:07:00,69.1,63.7,30.04,North,0,2.0,2.0,83,0.00,,,0.00,meteohub,2013-02-08 15:07:00,
2013-02-08 10:09:00,69.3,63.9,30.04,NW,315,2.0,2.0,83,0.00,,,0.00,meteohub,2013-02-08 15:09:00,
2013-02-08 10:10:00,69.4,64.0,30.04,NW,315,2.0,2.0,83,0.00,,,0.00,meteohub,2013-02-08 15:10:00,
2013-02-08 10:11:00,69.4,64.0,30.04,North,0,2.0,2.0,83,0.00,,,0.00,meteohub,2013-02-08 15:11:00,
2013-02-08 10:15:00,69.4,63.3,30.04,West,270,2.0,2.0,81,0.00,,,0.00,meteohub,2013-02-08 15:15:00,
2013-02-08 10:16:00,69.4,63.3,30.04,NW,315,2.0,3.0,81,0.00,,,0.00,meteohub,2013-02-08 15:16:00,
2013-02-08 10:21:00,69.8,63.7,30.05,NE,45,2.0,3.0,81,0.00,,,0.00,meteohub,2013-02-08 15:21:00,
2013-02-08 10:22:00,69.8,63.3,30.05,North,0,2.0,3.0,80,0.00,,,0.00,meteohub,2013-02-08 15:22:00,
2013-02-08 10:23:00,69.8,63.3,30.05,NE,45,2.0,3.0,80,0.00,,,0.00,meteohub,2013-02-08 15:23:00,
2013-02-08 10:26:00,70.0,63.5,30.05,NW,315,2.0,3.0,80,0.00,,,0.00,meteohub,2013-02-08 15:26:00,
2013-02-08 10:27:00,70.0,63.5,30.05,NW,315,2.0,3.0,80,0.00,,,0.00,meteohub,2013-02-08 15:27:00,
2013-02-08 10:32:00,70.2,63.3,30.05,NW,315,2.0,3.0,79,0.00,,,0.00,meteohub,2013-02-08 15:32:00,
2013-02-08 10:33:00,70.2,63.3,30.05,NW,315,2.0,3.0,79,0.00,,,0.00,meteohub,2013-02-08 15:33:00,
2013-02-08 10:34:00,70.2,63.0,30.05,NW,315,2.0,3.0,78,0.00,,,0.00,meteohub,2013-02-08 15:34:00,
2013-02-08 10:37:00,70.2,63.0,30.05,NW,315,4.0,4.0,78,0.00,,,0.00,meteohub,2013-02-08 15:37:00,
2013-02-08 10:38:00,70.2,62.6,30.05,West,270,3.0,4.0,77,0.00,,,0.00,meteohub,2013-02-08 15:38:00,
2013-02-08 10:39:00,70.2,62.6,30.05,North,0,2.0,4.0,77,0.00,,,0.00,meteohub,2013-02-08 15:39:00,
2013-02-08 10:40:00,70.3,62.8,30.05,NW,315,3.0,4.0,77,0.00,,,0.00,meteohub,2013-02-08 15:40:00,
2013-02-08 10:44:00,70.3,62.8,30.04,NW,315,2.0,4.0,77,0.00,,,0.00,meteohub,2013-02-08 15:44:00,
2013-02-08 10:45:00,70.3,62.8,30.04,NW,315,2.0,4.0,77,0.00,,,0.00,meteohub,2013-02-08 15:45:00,
2013-02-08 10:46:00,70.3,62.8,30.05,North,0,2.0,4.0,77,0.00,,,0.00,meteohub,2013-02-08 15:46:00,
2013-02-08 10:51:00,70.7,63.1,30.05,West,270,2.0,4.0,77,0.00,,,0.00,meteohub,2013-02-08 15:51:00,
2013-02-08 10:52:00,70.7,63.1,30.05,North,0,2.0,4.0,77,0.00,,,0.00,meteohub,2013-02-08 15:52:00,
2013-02-08 10:55:00,70.9,63.0,30.05,North,0,2.0,4.0,76,0.00,,,0.00,meteohub,2013-02-08 15:55:00,
2013-02-08 10:56:00,70.9,63.0,30.05,NE,45,2.0,4.0,76,0.00,,,0.00,meteohub,2013-02-08 15:56:00,
2013-02-08 10:59:00,71.1,62.8,30.04,North,0,2.0,4.0,75,0.00,,,0.00,meteohub,2013-02-08 15:59:00,
2013-02-08 11:02:00,71.2,63.0,30.04,North,0,2.0,4.0,75,0.00,,,0.00,meteohub,2013-02-08 16:02:00,
2013-02-08 11:04:00,71.2,62.6,30.04,NW,315,2.0,4.0,74,0.00,,,0.00,meteohub,2013-02-08 16:04:00,
2013-02-08 11:08:00,71.2,63.0,30.04,North,0,2.0,4.0,75,0.00,,,0.00,meteohub,2013-02-08 16:08:00,
2013-02-08 11:09:00,71.4,63.1,30.05,NW,315,2.0,4.0,75,0.00,,,0.00,meteohub,2013-02-08 16:09:00,
2013-02-08 11:10:00,71.4,63.1,30.05,North,0,3.0,3.0,75,0.00,,,0.00,meteohub,2013-02-08 16:10:00,
2013-02-08 11:13:00,71.8,62.6,30.05,SE,135,2.0,3.0,73,0.00,,,0.00,meteohub,2013-02-08 16:13:00,
2013-02-08 11:14:00,71.8,62.2,30.05,North,0,2.0,3.0,72,0.00,,,0.00,meteohub,2013-02-08 16:14:00,
2013-02-08 11:15:00,71.8,62.2,30.05,North,0,2.0,3.0,72,0.00,,,0.00,meteohub,2013-02-08 16:15:00,
2013-02-08 11:21:00,72.5,63.0,30.04,North,0,2.0,4.0,72,0.00,,,0.00,meteohub,2013-02-08 16:21:00,
2013-02-08 11:23:00,72.5,63.0,30.04,North,0,2.0,4.0,72,0.00,,,0.00,meteohub,2013-02-08 16:23:00,
2013-02-08 11:24:00,72.5,63.0,30.04,North,0,2.0,4.0,72,0.00,,,0.00,meteohub,2013-02-08 16:24:00,
2013-02-08 11:26:00,72.5,63.0,30.04,North,0,2.0,4.0,72,0.00,,,0.00,meteohub,2013-02-08 16:26:00,
2013-02-08 11:28:00,72.7,62.8,30.04,NW,315,2.0,4.0,71,0.00,,,0.00,meteohub,2013-02-08 16:28:00,
2013-02-08 11:29:00,72.5,62.6,30.04,NW,315,2.0,4.0,71,0.00,,,0.00,meteohub,2013-02-08 16:29:00,
2013-02-08 11:33:00,72.5,62.6,30.05,NW,315,4.0,4.0,71,0.00,,,0.00,meteohub,2013-02-08 16:33:00,
2013-02-08 11:34:00,72.7,62.8,30.04,North,0,2.0,4.0,71,0.00,,,0.00,meteohub,2013-02-08 16:34:00,
2013-02-08 11:36:00,72.7,62.8,30.04,North,0,2.0,4.0,71,0.00,,,0.00,meteohub,2013-02-08 16:36:00,
2013-02-08 11:38:00,72.7,62.8,30.04,North,0,2.0,4.0,71,0.00,,,0.00,meteohub,2013-02-08 16:38:00,
2013-02-08 11:39:00,72.7,62.2,30.04,NW,315,2.0,4.0,70,0.00,,,0.00,meteohub,2013-02-08 16:39:00,
2013-02-08 11:40:00,72.7,62.2,30.04,NW,315,3.0,4.0,70,0.00,,,0.00,meteohub,2013-02-08 16:40:00,
2013-02-08 11:42:00,72.7,62.2,30.04,SW,225,2.0,4.0,70,0.00,,,0.00,meteohub,2013-02-08 16:42:00,
2013-02-08 11:45:00,73.0,62.6,30.04,NE,45,3.0,4.0,70,0.00,,,0.00,meteohub,2013-02-08 16:45:00,
2013-02-08 11:47:00,72.9,62.1,30.04,North,0,4.0,4.0,69,0.00,,,0.00,meteohub,2013-02-08 16:47:00,
2013-02-08 11:48:00,72.9,62.1,30.04,North,0,3.0,4.0,69,0.00,,,0.00,meteohub,2013-02-08 16:48:00,
2013-02-08 11:50:00,72.7,61.9,30.04,NNW,338,3.0,4.0,69,0.00,,,0.00,meteohub,2013-02-08 16:50:00,
2013-02-08 11:52:00,72.7,61.9,30.04,North,0,3.0,4.0,69,0.00,,,0.00,meteohub,2013-02-08 16:52:00,
2013-02-08 11:53:00,72.7,61.9,30.04,North,0,3.0,4.0,69,0.00,,,0.00,meteohub,2013-02-08 16:53:00,
2013-02-08 11:55:00,72.7,62.2,30.04,NW,315,2.0,4.0,70,0.00,,,0.00,meteohub,2013-02-08 16:55:00,
2013-02-08 11:58:00,73.0,63.1,30.04,NE,45,3.0,5.0,71,0.00,,,0.00,meteohub,2013-02-08 16:58:00,
2013-02-08 11:59:00,73.2,62.8,30.04,NW,315,4.0,5.0,70,0.00,,,0.00,meteohub,2013-02-08 16:59:00,
2013-02-08 12:01:00,73.0,62.2,30.04,North,0,4.0,5.0,69,0.07,,,0.07,meteohub,2013-02-08 17:01:00,
2013-02-08 12:03:00,72.7,62.2,30.04,North,0,4.0,5.0,70,0.07,,,0.07,meteohub,2013-02-08 17:03:00,
2013-02-08 12:04:00,72.7,62.2,30.04,North,0,4.0,5.0,70,0.07,,,0.07,meteohub,2013-02-08 17:04:00,
2013-02-08 12:06:00,72.7,62.2,30.04,North,0,4.0,5.0,70,0.07,,,0.07,meteohub,2013-02-08 17:06:00,
2013-02-08 12:07:00,72.9,62.4,30.04,North,0,3.0,5.0,70,0.07,,,0.07,meteohub,2013-02-08 17:07:00,
2013-02-08 12:09:00,72.7,61.9,30.04,North,0,3.0,5.0,69,0.07,,,0.07,meteohub,2013-02-08 17:09:00,
2013-02-08 12:10:00,72.7,61.5,30.04,NW,315,2.0,5.0,68,0.07,,,0.07,meteohub,2013-02-08 17:10:00,
2013-02-08 12:11:00,72.7,61.9,30.04,NW,315,3.0,4.0,69,0.07,,,0.07,meteohub,2013-02-08 17:11:00,
2013-02-08 12:14:00,72.9,62.4,30.04,North,0,4.0,4.0,70,0.07,,,0.07,meteohub,2013-02-08 17:14:00,
2013-02-08 12:15:00,73.0,62.2,30.04,North,0,4.0,4.0,69,0.08,,,0.08,meteohub,2013-02-08 17:15:00,
2013-02-08 12:16:00,73.0,61.9,30.04,North,0,2.0,4.0,68,0.08,,,0.08,meteohub,2013-02-08 17:16:00,
2013-02-08 12:17:00,73.0,61.9,30.04,North,0,2.0,4.0,68,0.08,,,0.08,meteohub,2013-02-08 17:17:00,
2013-02-08 12:21:00,72.9,61.3,30.04,North,0,4.0,4.0,67,0.08,,,0.08,meteohub,2013-02-08 17:21:00,
2013-02-08 12:22:00,72.9,61.3,30.04,NW,315,4.0,4.0,67,0.08,,,0.08,meteohub,2013-02-08 17:22:00,
2013-02-08 12:24:00,73.0,61.5,30.04,North,0,5.0,5.0,67,0.08,,,0.08,meteohub,2013-02-08 17:24:00,
2013-02-08 12:27:00,73.2,61.5,30.04,North,0,4.0,5.0,67,0.08,,,0.08,meteohub,2013-02-08 17:27:00,
2013-02-08 12:28:00,73.4,61.7,30.04,North,0,4.0,5.0,67,0.08,,,0.08,meteohub,2013-02-08 17:28:00,
2013-02-08 12:30:00,73.6,61.9,30.04,North,0,3.0,5.0,67,0.08,,,0.08,meteohub,2013-02-08 17:30:00,
2013-02-08 12:32:00,73.8,62.1,30.04,West,270,3.0,5.0,67,0.08,,,0.08,meteohub,2013-02-08 17:32:00,
2013-02-08 12:33:00,73.9,62.8,30.04,NW,315,3.0,5.0,68,0.08,,,0.08,meteohub,2013-02-08 17:33:00,
2013-02-08 12:36:00,74.5,63.1,30.04,SW,225,5.0,5.0,68,0.08,,,0.08,meteohub,2013-02-08 17:36:00,
2013-02-08 12:37:00,74.7,63.0,30.04,NW,315,4.0,5.0,67,0.08,,,0.08,meteohub,2013-02-08 17:37:00,
2013-02-08 12:38:00,74.7,63.0,30.04,SW,225,4.0,5.0,67,0.08,,,0.08,meteohub,2013-02-08 17:38:00,
2013-02-08 12:40:00,74.5,62.4,30.04,North,0,3.0,5.0,66,0.08,,,0.08,meteohub,2013-02-08 17:40:00,
2013-02-08 12:42:00,74.3,62.2,30.04,NW,315,6.0,6.0,66,0.08,,,0.08,meteohub,2013-02-08 17:42:00,
2013-02-08 12:43:00,74.3,62.2,30.04,North,0,4.0,5.0,66,0.08,,,0.08,meteohub,2013-02-08 17:43:00,
2013-02-08 12:47:00,74.3,62.2,30.04,NE,45,2.0,6.0,66,0.08,,,0.08,meteohub,2013-02-08 17:47:00,
2013-02-08 12:48:00,74.3,62.2,30.04,SE,135,3.0,6.0,66,0.08,,,0.08,meteohub,2013-02-08 17:48:00,
2013-02-08 12:50:00,74.5,62.4,30.03,North,0,4.0,6.0,66,0.08,,,0.08,meteohub,2013-02-08 17:50:00,
2013-02-08 12:52:00,74.5,62.4,30.03,North,0,3.0,6.0,66,0.08,,,0.08,meteohub,2013-02-08 17:52:00,
2013-02-08 12:54:00,74.3,62.2,30.03,NW,315,3.0,6.0,66,0.08,,,0.08,meteohub,2013-02-08 17:54:00,
2013-02-08 12:55:00,74.3,62.2,30.03,North,0,4.0,6.0,66,0.05,,,0.08,meteohub,2013-02-08 17:55:00,
2013-02-08 12:56:00,74.3,62.2,30.03,North,0,2.0,6.0,66,0.05,,,0.08,meteohub,2013-02-08 17:56:00,
2013-02-08 12:57:00,74.5,62.4,30.03,NW,315,3.0,6.0,66,0.05,,,0.08,meteohub,2013-02-08 17:57:00,
2013-02-08 12:59:00,74.5,62.4,30.03,North,0,2.0,6.0,66,0.05,,,0.08,meteohub,2013-02-08 17:59:00,
2013-02-08 13:02:00,74.5,62.4,30.03,North,0,3.0,6.0,66,0.01,,,0.08,meteohub,2013-02-08 18:02:00,
2013-02-08 13:05:00,74.5,62.8,30.03,SE,135,4.0,6.0,67,0.01,,,0.08,meteohub,2013-02-08 18:05:00,
2013-02-08 13:07:00,74.5,62.8,30.02,West,270,3.0,6.0,67,0.01,,,0.08,meteohub,2013-02-08 18:07:00,
2013-02-08 13:10:00,74.5,62.4,30.03,North,0,3.0,6.0,66,0.01,,,0.08,meteohub,2013-02-08 18:10:00,
2013-02-08 13:12:00,74.5,62.8,30.02,North,0,3.0,4.0,67,0.01,,,0.08,meteohub,2013-02-08 18:12:00,
2013-02-08 13:15:00,74.5,62.8,30.02,North,0,3.0,7.0,67,0.05,,,0.08,meteohub,2013-02-08 18:15:00,
2013-02-08 13:16:00,74.5,62.8,30.02,North,0,3.0,7.0,67,0.05,,,0.08,meteohub,2013-02-08 18:16:00,
2013-02-08 13:18:00,74.5,62.8,30.02,NW,315,4.0,7.0,67,0.05,,,0.08,meteohub,2013-02-08 18:18:00,
2013-02-08 13:21:00,74.5,62.8,30.02,North,0,3.0,7.0,67,0.12,,,0.20,meteohub,2013-02-08 18:21:00,
2013-02-08 13:23:00,74.5,62.4,30.02,North,0,4.0,7.0,66,0.12,,,0.20,meteohub,2013-02-08 18:23:00,
2013-02-08 13:24:00,74.3,62.2,30.02,NE,45,3.0,7.0,66,0.12,,,0.20,meteohub,2013-02-08 18:24:00,
2013-02-08 13:26:00,74.3,62.2,30.02,NE,45,4.0,7.0,66,0.12,,,0.20,meteohub,2013-02-08 18:26:00,
2013-02-08 13:27:00,74.3,62.6,30.02,North,0,4.0,7.0,67,0.12,,,0.20,meteohub,2013-02-08 18:27:00,
2013-02-08 13:29:00,74.3,62.6,30.02,North,0,3.0,7.0,67,0.12,,,0.20,meteohub,2013-02-08 18:29:00,
2013-02-08 13:30:00,74.5,62.8,30.02,North,0,2.0,7.0,67,0.12,,,0.20,meteohub,2013-02-08 18:30:00,
2013-02-08 13:32:00,74.5,62.8,30.02,WNW,293,2.0,4.0,67,0.12,,,0.20,meteohub,2013-02-08 18:32:00,
2013-02-08 13:33:00,74.7,63.0,30.02,North,0,3.0,4.0,67,0.12,,,0.20,meteohub,2013-02-08 18:33:00,
2013-02-08 13:36:00,74.8,63.1,30.02,North,0,2.0,4.0,67,0.12,,,0.20,meteohub,2013-02-08 18:36:00,
2013-02-08 13:37:00,74.8,63.1,30.02,NW,315,3.0,4.0,67,0.12,,,0.20,meteohub,2013-02-08 18:37:00,
2013-02-08 13:38:00,74.8,62.8,30.02,NE,45,3.0,4.0,66,0.12,,,0.20,meteohub,2013-02-08 18:38:00,
2013-02-08 13:40:00,74.8,63.1,30.02,North,0,4.0,4.0,67,0.13,,,0.21,meteohub,2013-02-08 18:40:00,
2013-02-08 13:42:00,74.7,62.6,30.02,SW,225,3.0,4.0,66,0.13,,,0.21,meteohub,2013-02-08 18:42:00,
2013-02-08 13:44:00,74.5,62.4,30.02,North,0,2.0,4.0,66,0.13,,,0.21,meteohub,2013-02-08 18:44:00,
2013-02-08 13:45:00,74.7,63.0,30.02,North,0,3.0,4.0,67,0.13,,,0.21,meteohub,2013-02-08 18:45:00,
2013-02-08 13:46:00,74.7,63.0,30.02,North,0,2.0,4.0,67,0.13,,,0.21,meteohub,2013-02-08 18:46:00,
2013-02-08 13:47:00,74.8,63.1,30.02,North,0,3.0,4.0,67,0.13,,,0.21,meteohub,2013-02-08 18:47:00,
2013-02-08 13:49:00,74.8,63.1,30.02,North,0,4.0,4.0,67,0.13,,,0.21,meteohub,2013-02-08 18:49:00,
2013-02-08 13:52:00,74.8,62.8,30.02,East,90,2.0,4.0,66,0.13,,,0.21,meteohub,2013-02-08 18:52:00,
2013-02-08 13:53:00,74.8,63.1,30.02,NE,45,3.0,4.0,67,0.13,,,0.21,meteohub,2013-02-08 18:53:00,
2013-02-08 13:57:00,75.0,63.0,30.02,NW,315,4.0,4.0,66,0.13,,,0.21,meteohub,2013-02-08 18:57:00,
2013-02-08 13:59:00,74.8,62.8,30.02,North,0,2.0,4.0,66,0.13,,,0.21,meteohub,2013-02-08 18:59:00,
2013-02-08 14:01:00,74.8,63.1,30.02,North,0,2.0,4.0,67,0.13,,,0.21,meteohub,2013-02-08 19:01:00,
2013-02-08 14:02:00,75.0,63.3,30.02,NW,315,2.0,4.0,67,0.13,,,0.21,meteohub,2013-02-08 19:02:00,
2013-02-08 14:03:00,75.0,63.3,30.02,North,0,2.0,4.0,67,0.13,,,0.21,meteohub,2013-02-08 19:03:00,
2013-02-08 14:06:00,75.4,63.1,30.02,NW,315,3.0,4.0,66,0.13,,,0.21,meteohub,2013-02-08 19:06:00,
2013-02-08 14:07:00,75.6,63.3,30.02,NW,315,3.0,4.0,66,0.13,,,0.21,meteohub,2013-02-08 19:07:00,
2013-02-08 14:12:00,75.7,63.5,30.02,NE,45,4.0,5.0,66,0.13,,,0.21,meteohub,2013-02-08 19:12:00,
2013-02-08 14:14:00,75.7,63.5,30.02,North,0,4.0,5.0,66,0.13,,,0.21,meteohub,2013-02-08 19:14:00,
2013-02-08 14:16:00,75.7,63.5,30.02,NW,315,3.0,5.0,66,0.08,,,0.21,meteohub,2013-02-08 19:16:00,
2013-02-08 14:17:00,75.9,63.7,30.02,NW,315,3.0,5.0,66,0.08,,,0.21,meteohub,2013-02-08 19:17:00,
2013-02-08 14:19:00,75.9,63.7,30.02,NW,315,4.0,5.0,66,0.08,,,0.21,meteohub,2013-02-08 19:19:00,
2013-02-08 14:21:00,76.1,63.9,30.02,North,0,5.0,5.0,66,0.04,,,0.24,meteohub,2013-02-08 19:21:00,
2013-02-08 14:22:00,76.1,63.9,30.02,NE,45,4.0,5.0,66,0.04,,,0.24,meteohub,2013-02-08 19:22:00,
2013-02-08 14:24:00,76.1,63.9,30.02,NE,45,2.0,5.0,66,0.04,,,0.24,meteohub,2013-02-08 19:24:00,
2013-02-08 14:25:00,76.1,63.9,30.02,North,0,2.0,5.0,66,0.04,,,0.24,meteohub,2013-02-08 19:25:00,
2013-02-08 14:27:00,75.9,63.3,30.02,NW,315,5.0,5.0,65,0.04,,,0.24,meteohub,2013-02-08 19:27:00,
2013-02-08 14:29:00,75.6,63.0,30.02,NW,315,4.0,5.0,65,0.04,,,0.24,meteohub,2013-02-08 19:29:00,
2013-02-08 14:30:00,75.4,63.1,30.02,WSW,248,4.0,6.0,66,0.04,,,0.24,meteohub,2013-02-08 19:30:00,
2013-02-08 14:32:00,75.0,63.3,30.02,SW,225,4.0,6.0,67,0.04,,,0.24,meteohub,2013-02-08 19:32:00,
2013-02-08 14:35:00,74.7,63.0,30.03,West,270,4.0,6.0,67,0.04,,,0.24,meteohub,2013-02-08 19:35:00,
2013-02-08 14:36:00,74.5,62.8,30.03,North,0,4.0,6.0,67,0.02,,,0.24,meteohub,2013-02-08 19:36:00,
2013-02-08 14:38:00,73.9,62.8,30.03,North,0,4.0,6.0,68,0.02,,,0.24,meteohub,2013-02-08 19:38:00,
2013-02-08 14:40:00,73.6,62.4,30.03,North,0,2.0,6.0,68,0.02,,,0.24,meteohub,2013-02-08 19:40:00,
2013-02-08 14:42:00,73.6,62.8,30.02,North,0,3.0,6.0,69,0.02,,,0.24,meteohub,2013-02-08 19:42:00,
2013-02-08 14:44:00,73.4,62.6,30.02,NW,315,4.0,6.0,69,0.02,,,0.24,meteohub,2013-02-08 19:44:00,
2013-02-08 14:45:00,73.4,62.6,30.02,North,0,4.0,6.0,69,0.02,,,0.24,meteohub,2013-02-08 19:45:00,
2013-02-08 14:47:00,73.0,62.6,30.02,NW,315,4.0,6.0,70,0.02,,,0.24,meteohub,2013-02-08 19:47:00,
2013-02-08 14:50:00,72.9,62.4,30.03,North,0,4.0,5.0,70,0.02,,,0.24,meteohub,2013-02-08 19:50:00,
2013-02-08 14:52:00,72.9,62.4,30.02,NW,315,2.0,5.0,70,0.02,,,0.24,meteohub,2013-02-08 19:52:00,
2013-02-08 14:54:00,72.7,62.8,30.02,NW,315,2.0,5.0,71,0.02,,,0.24,meteohub,2013-02-08 19:54:00,
2013-02-08 14:57:00,72.9,63.0,30.02,NW,315,3.0,5.0,71,0.02,,,0.24,meteohub,2013-02-08 19:57:00,
2013-02-08 14:58:00,72.9,62.4,30.02,NW,315,2.0,5.0,70,0.02,,,0.24,meteohub,2013-02-08 19:58:00,
2013-02-08 15:01:00,72.7,62.8,30.02,North,0,3.0,5.0,71,0.02,,,0.24,meteohub,2013-02-08 20:01:00,
2013-02-08 15:04:00,72.3,62.4,30.02,North,0,3.0,5.0,71,0.02,,,0.24,meteohub,2013-02-08 20:04:00,
2013-02-08 15:06:00,72.1,62.2,30.02,NW,315,3.0,4.0,71,0.02,,,0.24,meteohub,2013-02-08 20:06:00,
2013-02-08 15:07:00,72.1,62.2,30.02,North,0,3.0,4.0,71,0.02,,,0.24,meteohub,2013-02-08 20:07:00,
2013-02-08 15:10:00,72.3,62.8,30.02,NW,315,3.0,4.0,72,0.02,,,0.24,meteohub,2013-02-08 20:10:00,
2013-02-08 15:11:00,72.3,62.8,30.02,NW,315,3.0,4.0,72,0.02,,,0.24,meteohub,2013-02-08 20:11:00,
2013-02-08 15:13:00,72.7,63.1,30.02,North,0,2.0,4.0,72,0.02,,,0.24,meteohub,2013-02-08 20:13:00,
2013-02-08 15:16:00,72.7,62.8,30.02,North,0,3.0,4.0,71,0.02,,,0.24,meteohub,2013-02-08 20:16:00,
2013-02-08 15:17:00,72.7,62.8,30.02,North,0,3.0,4.0,71,0.02,,,0.24,meteohub,2013-02-08 20:17:00,
2013-02-08 15:18:00,72.7,62.8,30.02,WSW,248,3.0,4.0,71,0.02,,,0.24,meteohub,2013-02-08 20:18:00,
2013-02-08 15:21:00,71.8,61.9,30.02,NW,315,3.0,4.0,71,0.00,,,0.24,meteohub,2013-02-08 20:21:00,
2013-02-08 15:22:00,71.6,61.7,30.02,North,0,3.0,4.0,71,0.00,,,0.24,meteohub,2013-02-08 20:22:00,
2013-02-08 15:23:00,71.1,61.5,30.02,NE,45,4.0,4.0,72,0.00,,,0.24,meteohub,2013-02-08 20:23:00,
2013-02-08 15:24:00,71.1,61.5,30.02,NE,45,4.0,4.0,72,0.00,,,0.24,meteohub,2013-02-08 20:24:00,
2013-02-08 15:26:00,70.3,61.7,30.02,North,0,5.0,5.0,74,0.00,,,0.24,meteohub,2013-02-08 20:26:00,
2013-02-08 15:29:00,70.2,61.5,30.02,North,0,3.0,4.0,74,0.00,,,0.24,meteohub,2013-02-08 20:29:00,
2013-02-08 15:30:00,70.0,61.7,30.02,NW,315,4.0,4.0,75,0.00,,,0.24,meteohub,2013-02-08 20:30:00,
2013-02-08 15:31:00,70.0,61.7,30.02,East,90,2.0,5.0,75,0.00,,,0.24,meteohub,2013-02-08 20:31:00,
2013-02-08 15:33:00,70.0,61.7,30.02,North,0,3.0,5.0,75,0.00,,,0.24,meteohub,2013-02-08 20:33:00,
2013-02-08 15:34:00,70.0,61.7,30.02,NW,315,3.0,5.0,75,0.00,,,0.24,meteohub,2013-02-08 20:34:00,
2013-02-08 15:35:00,70.0,61.7,30.02,North,0,3.0,5.0,75,0.00,,,0.24,meteohub,2013-02-08 20:35:00,
2013-02-08 15:37:00,70.0,61.7,30.02,NE,45,2.0,5.0,75,0.00,,,0.24,meteohub,2013-02-08 20:37:00,
2013-02-08 15:40:00,69.8,61.5,30.01,North,0,2.0,8.0,75,0.00,,,0.24,meteohub,2013-02-08 20:40:00,
2013-02-08 15:41:00,69.8,61.9,30.01,NW,315,4.0,8.0,76,0.00,,,0.24,meteohub,2013-02-08 20:41:00,
2013-02-08 15:46:00,69.8,61.9,30.01,North,0,1.0,8.0,76,0.00,,,0.24,meteohub,2013-02-08 20:46:00,
2013-02-08 15:48:00,70.3,62.4,30.01,NE,45,2.0,8.0,76,0.00,,,0.24,meteohub,2013-02-08 20:48:00,
2013-02-08 15:50:00,70.5,62.6,30.01,North,0,3.0,8.0,76,0.00,,,0.24,meteohub,2013-02-08 20:50:00,
2013-02-08 15:51:00,70.7,62.8,30.01,NE,45,2.0,8.0,76,0.00,,,0.24,meteohub,2013-02-08 20:51:00,
2013-02-08 15:52:00,70.9,62.6,30.01,NE,45,3.0,8.0,75,0.00,,,0.24,meteohub,2013-02-08 20:52:00,
2013-02-08 15:53:00,70.9,62.6,30.01,North,0,4.0,8.0,75,0.00,,,0.24,meteohub,2013-02-08 20:53:00,
2013-02-08 15:56:00,70.9,62.6,30.01,North,0,2.0,4.0,75,0.00,,,0.24,meteohub,2013-02-08 20:56:00,
2013-02-08 15:57:00,70.9,62.6,30.01,SE,135,3.0,4.0,75,0.00,,,0.24,meteohub,2013-02-08 20:57:00,
2013-02-08 15:58:00,71.1,62.8,30.01,NE,45,4.0,4.0,75,0.00,,,0.24,meteohub,2013-02-08 20:58:00,
2013-02-08 15:59:00,71.1,62.4,30.01,North,0,4.0,4.0,74,0.00,,,0.24,meteohub,2013-02-08 20:59:00,
2013-02-08 16:01:00,70.9,62.2,30.01,NW,315,4.0,4.0,74,0.00,,,0.24,meteohub,2013-02-08 21:01:00,
2013-02-08 16:02:00,71.1,62.4,30.01,NW,315,3.0,4.0,74,0.00,,,0.24,meteohub,2013-02-08 21:02:00,
2013-02-08 16:05:00,71.1,62.4,30.01,NW,315,4.0,4.0,74,0.00,,,0.24,meteohub,2013-02-08 21:05:00,
2013-02-08 16:07:00,70.9,61.9,30.01,WNW,293,3.0,4.0,73,0.00,,,0.24,meteohub,2013-02-08 21:07:00,
2013-02-08 16:08:00,70.7,62.1,30.01,NW,315,3.0,4.0,74,0.00,,,0.24,meteohub,2013-02-08 21:08:00,
2013-02-08 16:12:00,70.9,62.2,30.01,NW,315,3.0,4.0,74,0.00,,,0.24,meteohub,2013-02-08 21:12:00,
2013-02-08 16:13:00,70.9,62.2,30.01,NW,315,3.0,4.0,74,0.00,,,0.24,meteohub,2013-02-08 21:13:00,
2013-02-08 16:16:00,70.9,62.2,30.01,North,0,2.0,4.0,74,0.00,,,0.24,meteohub,2013-02-08 21:16:00,
2013-02-08 16:17:00,70.7,62.1,30.01,NW,315,2.0,4.0,74,0.00,,,0.24,meteohub,2013-02-08 21:17:00,
2013-02-08 16:19:00,70.7,62.1,30.02,NW,315,4.0,4.0,74,0.00,,,0.24,meteohub,2013-02-08 21:19:00,
2013-02-08 16:22:00,70.2,61.5,30.01,North,0,2.0,4.0,74,0.00,,,0.24,meteohub,2013-02-08 21:22:00,
2013-02-08 16:25:00,70.0,61.3,30.01,East,90,2.0,4.0,74,0.00,,,0.24,meteohub,2013-02-08 21:25:00,
2013-02-08 16:27:00,69.6,61.3,30.01,NW,315,2.0,4.0,75,0.00,,,0.24,meteohub,2013-02-08 21:27:00,
2013-02-08 16:28:00,69.4,61.2,30.01,NW,315,3.0,4.0,75,0.00,,,0.24,meteohub,2013-02-08 21:28:00,
2013-02-08 16:30:00,69.1,61.2,30.02,NE,45,3.0,4.0,76,0.00,,,0.24,meteohub,2013-02-08 21:30:00,
2013-02-08 16:32:00,68.7,60.8,30.02,NW,315,2.0,4.0,76,0.00,,,0.24,meteohub,2013-02-08 21:32:00,
2013-02-08 16:33:00,68.5,60.6,30.02,North,0,4.0,4.0,76,0.00,,,0.24,meteohub,2013-02-08 21:33:00,
2013-02-08 16:36:00,67.8,61.0,30.02,North,0,3.0,4.0,79,0.00,,,0.24,meteohub,2013-02-08 21:36:00,
2013-02-08 16:37:00,67.6,61.0,30.02,NW,315,4.0,4.0,79,0.00,,,0.24,meteohub,2013-02-08 21:37:00,
2013-02-08 16:38:00,67.5,60.8,30.02,North,0,3.0,4.0,79,0.00,,,0.24,meteohub,2013-02-08 21:38:00,
2013-02-08 16:39:00,67.5,60.8,30.02,NW,315,4.0,4.0,79,0.00,,,0.24,meteohub,2013-02-08 21:39:00,
2013-02-08 16:42:00,66.7,60.4,30.02,NW,315,3.0,4.0,80,0.00,,,0.24,meteohub,2013-02-08 21:42:00,
2013-02-08 16:43:00,66.6,60.6,30.02,North,0,3.0,4.0,81,0.00,,,0.24,meteohub,2013-02-08 21:43:00,
2013-02-08 16:44:00,66.6,60.6,30.02,East,90,2.0,4.0,81,0.00,,,0.24,meteohub,2013-02-08 21:44:00,
2013-02-08 16:46:00,66.4,60.8,30.02,North,0,4.0,4.0,82,0.00,,,0.24,meteohub,2013-02-08 21:46:00,
2013-02-08 16:48:00,66.2,60.6,30.02,NW,315,2.0,4.0,82,0.00,,,0.24,meteohub,2013-02-08 21:48:00,
2013-02-08 16:51:00,65.8,60.8,30.02,NE,45,3.0,4.0,84,0.00,,,0.24,meteohub,2013-02-08 21:51:00,
2013-02-08 16:53:00,65.7,61.0,30.02,NW,315,2.0,4.0,85,0.00,,,0.24,meteohub,2013-02-08 21:53:00,
2013-02-08 16:56:00,65.5,60.8,30.02,North,0,3.0,4.0,85,0.00,,,0.24,meteohub,2013-02-08 21:56:00,
2013-02-08 16:57:00,65.5,60.8,30.02,NW,315,2.0,4.0,85,0.00,,,0.24,meteohub,2013-02-08 21:57:00,
2013-02-08 16:58:00,65.3,60.6,30.02,North,0,3.0,4.0,85,0.00,,,0.24,meteohub,2013-02-08 21:58:00,
2013-02-08 17:01:00,65.3,60.6,30.02,North,0,2.0,4.0,85,0.00,,,0.24,meteohub,2013-02-08 22:01:00,
2013-02-08 17:02:00,65.3,60.6,30.02,North,0,2.0,4.0,85,0.00,,,0.24,meteohub,2013-02-08 22:02:00,
2013-02-08 17:04:00,65.3,60.6,30.02,North,0,2.0,4.0,85,0.00,,,0.24,meteohub,2013-02-08 22:04:00,
2013-02-08 17:08:00,65.3,60.6,30.02,North,0,2.0,4.0,85,0.00,,,0.24,meteohub,2013-02-08 22:08:00,
2013-02-08 17:09:00,65.3,60.6,30.02,North,0,3.0,4.0,85,0.00,,,0.24,meteohub,2013-02-08 22:09:00,
2013-02-08 17:10:00,65.3,60.6,30.02,North,0,4.0,4.0,85,0.00,,,0.24,meteohub,2013-02-08 22:10:00,
2013-02-08 17:13:00,65.1,60.4,30.02,NW,315,2.0,4.0,85,0.00,,,0.24,meteohub,2013-02-08 22:13:00,
2013-02-08 17:14:00,65.1,60.4,30.02,NW,315,2.0,4.0,85,0.00,,,0.24,meteohub,2013-02-08 22:14:00,
2013-02-08 17:15:00,65.1,60.4,30.02,North,0,1.0,4.0,85,0.00,,,0.24,meteohub,2013-02-08 22:15:00,
2013-02-08 17:17:00,65.1,60.4,30.02,NE,45,1.0,4.0,85,0.00,,,0.24,meteohub,2013-02-08 22:17:00,
2013-02-08 17:19:00,65.3,60.6,30.02,North,0,2.0,4.0,85,0.00,,,0.24,meteohub,2013-02-08 22:19:00,
2013-02-08 17:21:00,65.3,60.6,30.02,NE,45,2.0,4.0,85,0.00,,,0.24,meteohub,2013-02-08 22:21:00,
2013-02-08 17:22:00,65.3,60.6,30.03,North,0,3.0,4.0,85,0.00,,,0.24,meteohub,2013-02-08 22:22:00,
2013-02-08 17:24:00,65.3,60.6,30.03,NW,315,3.0,4.0,85,0.00,,,0.24,meteohub,2013-02-08 22:24:00,
2013-02-08 17:25:00,65.3,60.6,30.02,WNW,293,3.0,3.0,85,0.00,,,0.24,meteohub,2013-02-08 22:25:00,
2013-02-08 17:27:00,65.1,60.4,30.03,North,0,3.0,3.0,85,0.00,,,0.24,meteohub,2013-02-08 22:27:00,
2013-02-08 17:30:00,64.9,60.3,30.02,North,0,2.0,3.0,85,0.00,,,0.24,meteohub,2013-02-08 22:30:00,
2013-02-08 17:32:00,64.8,60.1,30.02,NE,45,2.0,4.0,85,0.00,,,0.24,meteohub,2013-02-08 22:32:00,
2013-02-08 17:34:00,64.8,60.1,30.03,NE,45,4.0,4.0,85,0.00,,,0.24,meteohub,2013-02-08 22:34:00,
2013-02-08 17:36:00,64.6,59.9,30.03,SE,135,4.0,4.0,85,0.00,,,0.24,meteohub,2013-02-08 22:36:00,
2013-02-08 17:38:00,64.4,59.7,30.03,North,0,4.0,4.0,85,0.00,,,0.24,meteohub,2013-02-08 22:38:00,
2013-02-08 17:39:00,64.4,59.7,30.03,North,0,4.0,4.0,85,0.00,,,0.24,meteohub,2013-02-08 22:39:00,
2013-02-08 17:41:00,64.2,59.4,30.03,North,0,2.0,6.0,84,0.00,,,0.24,meteohub,2013-02-08 22:41:00,
2013-02-08 17:42:00,64.2,59.4,30.03,North,0,2.0,6.0,84,0.00,,,0.24,meteohub,2013-02-08 22:42:00,
2013-02-08 17:44:00,64.2,59.4,30.03,North,0,3.0,6.0,84,0.00,,,0.24,meteohub,2013-02-08 22:44:00,
2013-02-08 17:45:00,64.2,59.4,30.03,North,0,2.0,6.0,84,0.00,,,0.24,meteohub,2013-02-08 22:45:00,
2013-02-08 17:47:00,64.2,59.4,30.03,NW,315,2.0,6.0,84,0.00,,,0.24,meteohub,2013-02-08 22:47:00,
2013-02-08 17:48:00,64.2,59.5,30.03,NE,45,3.0,6.0,85,0.00,,,0.24,meteohub,2013-02-08 22:48:00,
2013-02-08 17:49:00,64.2,59.5,30.02,NE,45,2.0,6.0,85,0.00,,,0.24,meteohub,2013-02-08 22:49:00,
2013-02-08 17:51:00,64.2,59.5,30.03,WNW,293,2.0,6.0,85,0.00,,,0.24,meteohub,2013-02-08 22:51:00,
2013-02-08 17:52:00,64.4,60.1,30.02,NW,315,2.0,6.0,86,0.00,,,0.24,meteohub,2013-02-08 22:52:00,
2013-02-08 17:54:00,64.4,60.1,30.03,North,0,2.0,6.0,86,0.00,,,0.24,meteohub,2013-02-08 22:54:00,
2013-02-08 17:56:00,64.4,60.1,30.02,North,0,2.0,3.0,86,0.00,,,0.24,meteohub,2013-02-08 22:56:00,
2013-02-08 17:58:00,64.2,59.5,30.02,North,0,3.0,3.0,85,0.00,,,0.24,meteohub,2013-02-08 22:58:00,
2013-02-08 18:00:00,64.2,59.5,30.02,North,0,3.0,3.0,85,0.00,,,0.24,meteohub,2013-02-08 23:00:00,
2013-02-08 18:01:00,64.0,59.4,30.03,North,0,3.0,3.0,85,0.00,,,0.24,meteohub,2013-02-08 23:01:00,
2013-02-08 18:02:00,64.0,59.4,30.03,North,0,3.0,3.0,85,0.00,,,0.24,meteohub,2013-02-08 23:02:00,
2013-02-08 18:05:00,63.9,59.2,30.03,North,0,3.0,3.0,85,0.00,,,0.24,meteohub,2013-02-08 23:05:00,
2013-02-08 18:06:00,63.9,59.2,30.03,NE,45,3.0,4.0,85,0.00,,,0.24,meteohub,2013-02-08 23:06:00,
2013-02-08 18:08:00,63.7,59.0,30.03,NE,45,3.0,4.0,85,0.00,,,0.24,meteohub,2013-02-08 23:08:00,
2013-02-08 18:10:00,63.7,59.0,30.03,North,0,2.0,4.0,85,0.00,,,0.24,meteohub,2013-02-08 23:10:00,
2013-02-08 18:11:00,63.7,59.0,30.04,North,0,2.0,4.0,85,0.00,,,0.24,meteohub,2013-02-08 23:11:00,
2013-02-08 18:13:00,63.5,58.8,30.04,North,0,4.0,4.0,85,0.00,,,0.24,meteohub,2013-02-08 23:13:00,
2013-02-08 18:14:00,63.5,58.8,30.03,North,0,4.0,4.0,85,0.00,,,0.24,meteohub,2013-02-08 23:14:00,
2013-02-08 18:15:00,63.5,58.8,30.04,North,0,3.0,4.0,85,0.00,,,0.24,meteohub,2013-02-08 23:15:00,
2013-02-08 18:17:00,63.3,58.8,30.04,North,0,4.0,4.0,85,0.00,,,0.24,meteohub,2013-02-08 23:17:00,
2013-02-08 18:19:00,63.3,59.0,30.04,North,0,3.0,4.0,86,0.00,,,0.24,meteohub,2013-02-08 23:19:00,
2013-02-08 18:20:00,63.3,59.0,30.04,NE,45,2.0,4.0,86,0.00,,,0.24,meteohub,2013-02-08 23:20:00,
2013-02-08 18:21:00,63.3,59.0,30.04,NW,315,2.0,4.0,86,0.00,,,0.24,meteohub,2013-02-08 23:21:00,
2013-02-08 18:22:00,63.3,59.0,30.04,North,0,3.0,4.0,86,0.00,,,0.24,meteohub,2013-02-08 23:22:00,
2013-02-08 18:25:00,63.1,58.8,30.04,North,0,2.0,4.0,86,0.00,,,0.24,meteohub,2013-02-08 23:25:00,
2013-02-08 18:26:00,63.1,58.8,30.04,North,0,4.0,4.0,86,0.00,,,0.24,meteohub,2013-02-08 23:26:00,
2013-02-08 18:27:00,63.1,58.8,30.04,NE,45,3.0,4.0,86,0.00,,,0.24,meteohub,2013-02-08 23:27:00,
2013-02-08 18:30:00,63.1,58.8,30.04,North,0,2.0,4.0,86,0.00,,,0.24,meteohub,2013-02-08 23:30:00,
2013-02-08 18:31:00,63.1,58.8,30.05,North,0,4.0,4.0,86,0.00,,,0.24,meteohub,2013-02-08 23:31:00,
2013-02-08 18:32:00,63.1,58.8,30.05,North,0,3.0,4.0,86,0.00,,,0.24,meteohub,2013-02-08 23:32:00,
2013-02-08 18:36:00,63.0,58.6,30.05,North,0,4.0,4.0,86,0.00,,,0.24,meteohub,2013-02-08 23:36:00,
2013-02-08 18:37:00,63.0,58.6,30.05,NW,315,3.0,4.0,86,0.00,,,0.24,meteohub,2013-02-08 23:37:00,
2013-02-08 18:38:00,63.0,58.6,30.05,North,0,4.0,4.0,86,0.00,,,0.24,meteohub,2013-02-08 23:38:00,
2013-02-08 18:42:00,63.0,58.6,30.05,SE,135,3.0,4.0,86,0.00,,,0.24,meteohub,2013-02-08 23:42:00,
2013-02-08 18:43:00,63.0,58.6,30.05,WNW,293,4.0,4.0,86,0.00,,,0.24,meteohub,2013-02-08 23:43:00,
2013-02-08 18:44:00,63.0,58.6,30.05,North,0,4.0,4.0,86,0.00,,,0.24,meteohub,2013-02-08 23:44:00,
2013-02-08 18:47:00,63.0,58.5,30.04,North,0,4.0,4.0,85,0.00,,,0.24,meteohub,2013-02-08 23:47:00,
2013-02-08 18:49:00,63.0,58.5,30.05,North,0,4.0,4.0,85,0.00,,,0.24,meteohub,2013-02-08 23:49:00,
2013-02-08 18:50:00,63.0,58.5,30.05,NW,315,4.0,4.0,85,0.00,,,0.24,meteohub,2013-02-08 23:50:00,
2013-02-08 18:52:00,63.0,58.6,30.05,North,0,2.0,4.0,86,0.00,,,0.24,meteohub,2013-02-08 23:52:00,
2013-02-08 18:55:00,63.0,58.6,30.05,North,0,3.0,4.0,86,0.00,,,0.24,meteohub,2013-02-08 23:55:00,
2013-02-08 18:57:00,63.0,58.6,30.05,SE,135,4.0,4.0,86,0.00,,,0.24,meteohub,2013-02-08 23:57:00,
2013-02-08 18:59:00,63.0,58.6,30.05,North,0,3.0,4.0,86,0.00,,,0.24,meteohub,2013-02-08 23:59:00,
2013-02-08 19:01:00,63.0,58.6,30.05,North,0,3.0,4.0,86,0.00,,,0.24,meteohub,2013-02-09 00:01:00,
2013-02-08 19:02:00,63.0,58.6,30.06,NE,45,3.0,4.0,86,0.00,,,0.24,meteohub,2013-02-09 00:02:00,
2013-02-08 19:04:00,63.0,58.6,30.05,NW,315,2.0,4.0,86,0.00,,,0.24,meteohub,2013-02-09 00:04:00,
2013-02-08 19:06:00,63.0,58.6,30.06,North,0,2.0,4.0,86,0.00,,,0.24,meteohub,2013-02-09 00:06:00,
2013-02-08 19:07:00,63.0,58.6,30.06,North,0,2.0,4.0,86,0.00,,,0.24,meteohub,2013-02-09 00:07:00,
2013-02-08 19:08:00,63.0,58.6,30.06,NE,45,2.0,4.0,86,0.00,,,0.24,meteohub,2013-02-09 00:08:00,
2013-02-08 19:09:00,63.0,58.6,30.06,North,0,2.0,4.0,86,0.00,,,0.24,meteohub,2013-02-09 00:09:00,
2013-02-08 19:13:00,62.8,58.5,30.06,North,0,3.0,4.0,86,0.00,,,0.24,meteohub,2013-02-09 00:13:00,
2013-02-08 19:15:00,62.8,58.5,30.06,North,0,2.0,3.0,86,0.00,,,0.24,meteohub,2013-02-09 00:15:00,
2013-02-08 19:17:00,62.8,58.5,30.06,North,0,2.0,3.0,86,0.00,,,0.24,meteohub,2013-02-09 00:17:00,
2013-02-08 19:19:00,62.8,58.5,30.06,North,0,3.0,3.0,86,0.00,,,0.24,meteohub,2013-02-09 00:19:00,
2013-02-08 19:21:00,62.8,58.5,30.06,North,0,4.0,4.0,86,0.00,,,0.24,meteohub,2013-02-09 00:21:00,
2013-02-08 19:24:00,62.6,58.3,30.06,North,0,2.0,4.0,86,0.00,,,0.24,meteohub,2013-02-09 00:24:00,
2013-02-08 19:25:00,62.6,58.3,30.06,North,0,2.0,4.0,86,0.00,,,0.24,meteohub,2013-02-09 00:25:00,
2013-02-08 19:26:00,62.6,58.3,30.06,North,0,2.0,4.0,86,0.00,,,0.24,meteohub,2013-02-09 00:26:00,
2013-02-08 19:27:00,62.6,58.3,30.06,North,0,2.0,4.0,86,0.00,,,0.24,meteohub,2013-02-09 00:27:00,
2013-02-08 19:31:00,62.6,58.3,30.06,North,0,2.0,4.0,86,0.00,,,0.24,meteohub,2013-02-09 00:31:00,
2013-02-08 19:32:00,62.6,58.3,30.06,North,0,3.0,4.0,86,0.00,,,0.24,meteohub,2013-02-09 00:32:00,
2013-02-08 19:33:00,62.6,58.3,30.06,North,0,3.0,4.0,86,0.00,,,0.24,meteohub,2013-02-09 00:33:00,
2013-02-08 19:36:00,62.6,58.3,30.07,NW,315,4.0,4.0,86,0.00,,,0.24,meteohub,2013-02-09 00:36:00,
2013-02-08 19:39:00,62.4,58.1,30.07,NE,45,2.0,4.0,86,0.00,,,0.24,meteohub,2013-02-09 00:39:00,
2013-02-08 19:41:00,62.4,58.1,30.07,East,90,2.0,4.0,86,0.00,,,0.24,meteohub,2013-02-09 00:41:00,
2013-02-08 19:44:00,62.2,57.9,30.08,North,0,2.0,4.0,86,0.00,,,0.24,meteohub,2013-02-09 00:44:00,
2013-02-08 19:46:00,62.2,57.9,30.07,West,270,1.0,4.0,86,0.00,,,0.24,meteohub,2013-02-09 00:46:00,
2013-02-08 19:49:00,62.1,57.7,30.07,North,0,1.0,4.0,86,0.00,,,0.24,meteohub,2013-02-09 00:49:00,
2013-02-08 19:51:00,62.1,57.7,30.07,North,0,1.0,4.0,86,0.00,,,0.24,meteohub,2013-02-09 00:51:00,
2013-02-08 19:53:00,62.1,57.7,30.08,North,0,2.0,4.0,86,0.00,,,0.24,meteohub,2013-02-09 00:53:00,
2013-02-08 19:54:00,61.9,57.6,30.08,NW,315,1.0,4.0,86,0.00,,,0.24,meteohub,2013-02-09 00:54:00,
2013-02-08 19:56:00,61.9,57.6,30.07,NW,315,0.0,2.0,86,0.00,,,0.24,meteohub,2013-02-09 00:56:00,
2013-02-08 19:58:00,61.9,57.6,30.07,NE,45,1.0,2.0,86,0.00,,,0.24,meteohub,2013-02-09 00:58:00,
2013-02-08 19:59:00,61.7,57.4,30.07,NE,45,0.0,2.0,86,0.00,,,0.24,meteohub,2013-02-09 00:59:00,
2013-02-08 20:02:00,61.7,57.4,30.07,North,0,1.0,2.0,86,0.00,,,0.24,meteohub,2013-02-09 01:02:00,
2013-02-08 20:03:00,61.7,57.4,30.08,North,0,1.0,2.0,86,0.00,,,0.24,meteohub,2013-02-09 01:03:00,
2013-02-08 20:07:00,61.5,57.6,30.08,North,0,0.0,2.0,87,0.00,,,0.24,meteohub,2013-02-09 01:07:00,
2013-02-08 20:08:00,61.5,57.6,30.08,West,270,0.0,2.0,87,0.00,,,0.24,meteohub,2013-02-09 01:08:00,
2013-02-08 20:09:00,61.5,57.6,30.08,West,270,0.0,2.0,87,0.00,,,0.24,meteohub,2013-02-09 01:09:00,
2013-02-08 20:12:00,61.3,57.4,30.08,West,270,0.0,1.0,87,0.00,,,0.24,meteohub,2013-02-09 01:12:00,
2013-02-08 20:14:00,61.2,57.2,30.08,West,270,0.0,1.0,87,0.00,,,0.24,meteohub,2013-02-09 01:14:00,
2013-02-08 20:15:00,61.2,57.2,30.08,West,270,1.0,1.0,87,0.00,,,0.24,meteohub,2013-02-09 01:15:00,
2013-02-08 20:16:00,61.2,57.2,30.08,West,270,0.0,1.0,87,0.00,,,0.24,meteohub,2013-02-09 01:16:00,
2013-02-08 20:18:00,61.0,57.0,30.08,North,0,1.0,1.0,87,0.00,,,0.24,meteohub,2013-02-09 01:18:00,
2013-02-08 20:20:00,60.8,56.8,30.08,North,0,0.0,1.0,87,0.00,,,0.24,meteohub,2013-02-09 01:20:00,
2013-02-08 20:21:00,60.8,56.8,30.08,North,0,0.0,1.0,87,0.00,,,0.24,meteohub,2013-02-09 01:21:00,
2013-02-08 20:24:00,60.6,57.0,30.08,North,0,0.0,1.0,88,0.00,,,0.24,meteohub,2013-02-09 01:24:00,
2013-02-08 20:25:00,60.6,57.0,30.08,North,0,0.0,1.0,88,0.00,,,0.24,meteohub,2013-02-09 01:25:00,
2013-02-08 20:26:00,60.6,57.0,30.08,North,0,0.0,1.0,88,0.00,,,0.24,meteohub,2013-02-09 01:26:00,
2013-02-08 20:27:00,60.6,57.0,30.08,North,0,0.0,1.0,88,0.00,,,0.24,meteohub,2013-02-09 01:27:00,
2013-02-08 20:31:00,60.4,56.8,30.08,North,0,0.0,1.0,88,0.00,,,0.24,meteohub,2013-02-09 01:31:00,
2013-02-08 20:32:00,60.3,57.0,30.09,North,0,0.0,1.0,89,0.00,,,0.24,meteohub,2013-02-09 01:32:00,
2013-02-08 20:33:00,60.3,57.0,30.09,North,0,0.0,1.0,89,0.00,,,0.24,meteohub,2013-02-09 01:33:00,
2013-02-08 20:35:00,60.1,56.8,30.09,North,0,0.0,0.0,89,0.00,,,0.24,meteohub,2013-02-09 01:35:00,
2013-02-08 20:36:00,60.1,56.8,30.09,North,0,0.0,0.0,89,0.00,,,0.24,meteohub,2013-02-09 01:36:00,
2013-02-08 20:37:00,60.1,56.8,30.09,North,0,0.0,0.0,89,0.00,,,0.24,meteohub,2013-02-09 01:37:00,
2013-02-08 20:39:00,59.9,56.7,30.09,North,0,0.0,0.0,89,0.00,,,0.24,meteohub,2013-02-09 01:39:00,
2013-02-08 20:42:00,59.9,56.7,30.09,North,0,0.0,0.0,89,0.00,,,0.24,meteohub,2013-02-09 01:42:00,
2013-02-08 20:44:00,59.7,56.5,30.09,North,0,1.0,0.0,89,0.00,,,0.24,meteohub,2013-02-09 01:44:00,
2013-02-08 20:45:00,59.7,56.5,30.09,North,0,0.0,1.0,89,0.00,,,0.24,meteohub,2013-02-09 01:45:00,
2013-02-08 20:47:00,59.7,56.5,30.09,North,0,0.0,1.0,89,0.00,,,0.24,meteohub,2013-02-09 01:47:00,
2013-02-08 20:52:00,59.5,56.7,30.09,North,0,0.0,1.0,90,0.00,,,0.24,meteohub,2013-02-09 01:52:00,
2013-02-08 20:54:00,59.5,56.7,30.09,North,0,0.0,1.0,90,0.00,,,0.24,meteohub,2013-02-09 01:54:00,
2013-02-08 20:57:00,59.4,56.5,30.09,North,0,1.0,1.0,90,0.00,,,0.24,meteohub,2013-02-09 01:57:00,
2013-02-08 20:59:00,59.4,56.5,30.09,North,0,1.0,1.0,90,0.00,,,0.24,meteohub,2013-02-09 01:59:00,
2013-02-08 21:01:00,59.4,56.5,30.09,North,0,0.0,1.0,90,0.00,,,0.24,meteohub,2013-02-09 02:01:00,
2013-02-08 21:02:00,59.4,56.5,30.09,North,0,1.0,1.0,90,0.00,,,0.24,meteohub,2013-02-09 02:02:00,
2013-02-08 21:06:00,59.4,56.7,30.09,North,0,0.0,1.0,91,0.00,,,0.24,meteohub,2013-02-09 02:06:00,
2013-02-08 21:08:00,59.2,56.5,30.09,North,0,0.0,1.0,91,0.00,,,0.24,meteohub,2013-02-09 02:08:00,
2013-02-08 21:09:00,59.2,56.5,30.09,North,0,0.0,1.0,91,0.00,,,0.24,meteohub,2013-02-09 02:09:00,
2013-02-08 21:12:00,59.2,56.5,30.09,North,0,2.0,2.0,91,0.00,,,0.24,meteohub,2013-02-09 02:12:00,
2013-02-08 21:13:00,59.2,56.5,30.09,North,0,0.0,1.0,91,0.00,,,0.24,meteohub,2013-02-09 02:13:00,
2013-02-08 21:15:00,59.2,56.5,30.09,North,0,1.0,2.0,91,0.00,,,0.24,meteohub,2013-02-09 02:15:00,
2013-02-08 21:17:00,59.2,56.5,30.09,North,0,1.0,2.0,91,0.00,,,0.24,meteohub,2013-02-09 02:17:00,
2013-02-08 21:18:00,59.2,56.8,30.09,North,0,1.0,2.0,92,0.00,,,0.24,meteohub,2013-02-09 02:18:00,
2013-02-08 21:20:00,59.2,56.8,30.09,North,0,1.0,2.0,92,0.00,,,0.24,meteohub,2013-02-09 02:20:00,
2013-02-08 21:22:00,59.2,56.8,30.09,North,0,1.0,2.0,92,0.00,,,0.24,meteohub,2013-02-09 02:22:00,
2013-02-08 21:23:00,59.2,56.8,30.10,North,0,1.0,2.0,92,0.00,,,0.24,meteohub,2013-02-09 02:23:00,
2013-02-08 21:25:00,59.2,56.8,30.09,North,0,0.0,2.0,92,0.00,,,0.24,meteohub,2013-02-09 02:25:00,
2013-02-08 21:26:00,59.4,57.0,30.09,North,0,0.0,2.0,92,0.00,,,0.24,meteohub,2013-02-09 02:26:00,
2013-02-08 21:27:00,59.4,57.0,30.09,North,0,1.0,2.0,92,0.00,,,0.24,meteohub,2013-02-09 02:27:00,
2013-02-08 21:31:00,59.4,57.4,30.09,North,0,0.0,2.0,93,0.00,,,0.24,meteohub,2013-02-09 02:31:00,
2013-02-08 21:32:00,59.4,57.4,30.10,North,0,0.0,2.0,93,0.00,,,0.24,meteohub,2013-02-09 02:32:00,
2013-02-08 21:36:00,59.2,57.2,30.09,North,0,0.0,2.0,93,0.00,,,0.24,meteohub,2013-02-09 02:36:00,
2013-02-08 21:37:00,59.2,57.2,30.09,North,0,0.0,2.0,93,0.00,,,0.24,meteohub,2013-02-09 02:37:00,
2013-02-08 21:38:00,59.2,57.2,30.10,NNW,338,0.0,2.0,93,0.00,,,0.24,meteohub,2013-02-09 02:38:00,
2013-02-08 21:39:00,59.2,57.2,30.09,NW,315,0.0,2.0,93,0.00,,,0.24,meteohub,2013-02-09 02:39:00,
2013-02-08 21:41:00,59.2,57.2,30.10,NW,315,0.0,1.0,93,0.00,,,0.24,meteohub,2013-02-09 02:41:00,
2013-02-08 21:43:00,59.2,57.2,30.10,NW,315,0.0,1.0,93,0.00,,,0.24,meteohub,2013-02-09 02:43:00,
2013-02-08 21:44:00,59.2,57.2,30.10,NW,315,0.0,1.0,93,0.00,,,0.24,meteohub,2013-02-09 02:44:00,
2013-02-08 21:47:00,59.2,57.2,30.10,NW,315,0.0,1.0,93,0.00,,,0.24,meteohub,2013-02-09 02:47:00,
2013-02-08 21:48:00,59.2,57.2,30.10,NW,315,0.0,1.0,93,0.00,,,0.24,meteohub,2013-02-09 02:48:00,
2013-02-08 21:49:00,59.2,57.2,30.10,NW,315,0.0,1.0,93,0.00,,,0.24,meteohub,2013-02-09 02:49:00,
2013-02-08 21:50:00,59.2,57.2,30.09,NW,315,0.0,1.0,93,0.00,,,0.24,meteohub,2013-02-09 02:50:00,
2013-02-08 21:52:00,59.2,57.2,30.10,NW,315,1.0,1.0,93,0.00,,,0.24,meteohub,2013-02-09 02:52:00,
2013-02-08 21:55:00,59.0,57.0,30.10,NW,315,0.0,1.0,93,0.00,,,0.24,meteohub,2013-02-09 02:55:00,
2013-02-08 21:57:00,59.0,57.0,30.10,NW,315,1.0,1.0,93,0.00,,,0.24,meteohub,2013-02-09 02:57:00,
2013-02-08 21:58:00,59.0,57.0,30.10,North,0,1.0,1.0,93,0.00,,,0.24,meteohub,2013-02-09 02:58:00,
2013-02-08 22:00:00,59.0,57.0,30.10,North,0,1.0,2.0,93,0.00,,,0.24,meteohub,2013-02-09 03:00:00,
2013-02-08 22:02:00,59.0,57.0,30.10,North,0,1.0,2.0,93,0.00,,,0.24,meteohub,2013-02-09 03:02:00,
2013-02-08 22:04:00,59.2,57.4,30.10,North,0,2.0,2.0,94,0.00,,,0.24,meteohub,2013-02-09 03:04:00,
2013-02-08 22:05:00,59.2,57.4,30.10,North,0,1.0,2.0,94,0.00,,,0.24,meteohub,2013-02-09 03:05:00,
2013-02-08 22:07:00,59.2,57.4,30.10,North,0,2.0,2.0,94,0.00,,,0.24,meteohub,2013-02-09 03:07:00,
2013-02-08 22:09:00,59.2,57.4,30.10,North,0,2.0,2.0,94,0.00,,,0.24,meteohub,2013-02-09 03:09:00,
2013-02-08 22:10:00,59.2,57.4,30.09,North,0,2.0,2.0,94,0.00,,,0.24,meteohub,2013-02-09 03:10:00,
2013-02-08 22:11:00,59.2,57.4,30.10,North,0,2.0,2.0,94,0.00,,,0.24,meteohub,2013-02-09 03:11:00,
2013-02-08 22:14:00,59.4,57.6,30.10,North,0,2.0,2.0,94,0.00,,,0.24,meteohub,2013-02-09 03:14:00,
2013-02-08 22:15:00,59.4,57.6,30.10,North,0,2.0,2.0,94,0.00,,,0.24,meteohub,2013-02-09 03:15:00,
2013-02-08 22:16:00,59.4,57.9,30.11,North,0,1.0,2.0,95,0.00,,,0.24,meteohub,2013-02-09 03:16:00,
2013-02-08 22:17:00,59.4,57.9,30.11,North,0,1.0,2.0,95,0.00,,,0.24,meteohub,2013-02-09 03:17:00,
2013-02-08 22:20:00,59.5,58.1,30.11,North,0,0.0,2.0,95,0.00,,,0.24,meteohub,2013-02-09 03:20:00,
2013-02-08 22:21:00,59.4,57.9,30.10,North,0,1.0,2.0,95,0.00,,,0.24,meteohub,2013-02-09 03:21:00,
2013-02-08 22:22:00,59.4,57.9,30.10,North,0,0.0,2.0,95,0.00,,,0.24,meteohub,2013-02-09 03:22:00,
2013-02-08 22:24:00,59.4,57.9,30.11,East,90,0.0,2.0,95,0.00,,,0.24,meteohub,2013-02-09 03:24:00,
2013-02-08 22:26:00,59.4,57.9,30.11,NW,315,1.0,2.0,95,0.00,,,0.24,meteohub,2013-02-09 03:26:00,
2013-02-08 22:27:00,59.4,57.9,30.11,NW,315,1.0,2.0,95,0.00,,,0.24,meteohub,2013-02-09 03:27:00,
2013-02-08 22:29:00,59.2,57.7,30.11,North,0,0.0,2.0,95,0.00,,,0.24,meteohub,2013-02-09 03:29:00,
2013-02-08 22:32:00,59.2,57.7,30.10,East,90,0.0,2.0,95,0.00,,,0.24,meteohub,2013-02-09 03:32:00,
2013-02-08 22:33:00,59.2,57.7,30.10,East,90,0.0,2.0,95,0.00,,,0.24,meteohub,2013-02-09 03:33:00,
2013-02-08 22:36:00,59.2,57.7,30.11,East,90,0.0,1.0,95,0.00,,,0.24,meteohub,2013-02-09 03:36:00,
2013-02-08 22:37:00,59.2,57.7,30.11,East,90,0.0,1.0,95,0.00,,,0.24,meteohub,2013-02-09 03:37:00,
2013-02-08 22:38:00,59.2,57.7,30.11,East,90,0.0,1.0,95,0.00,,,0.24,meteohub,2013-02-09 03:38:00,
2013-02-08 22:39:00,59.2,57.7,30.11,East,90,0.0,1.0,95,0.00,,,0.24,meteohub,2013-02-09 03:39:00,
2013-02-08 22:43:00,59.2,57.7,30.11,NW,315,0.0,1.0,95,0.00,,,0.24,meteohub,2013-02-09 03:43:00,
2013-02-08 22:44:00,59.2,57.7,30.11,NW,315,0.0,1.0,95,0.00,,,0.24,meteohub,2013-02-09 03:44:00,
2013-02-08 22:45:00,59.2,57.7,30.11,NW,315,0.0,1.0,95,0.00,,,0.24,meteohub,2013-02-09 03:45:00,
2013-02-08 22:49:00,59.0,57.6,30.11,NW,315,0.0,1.0,95,0.00,,,0.24,meteohub,2013-02-09 03:49:00,
2013-02-08 22:50:00,59.0,57.6,30.10,NW,315,0.0,1.0,95,0.00,,,0.24,meteohub,2013-02-09 03:50:00,
2013-02-08 22:51:00,59.0,57.6,30.10,NW,315,0.0,0.0,95,0.00,,,0.24,meteohub,2013-02-09 03:51:00,
2013-02-08 22:52:00,59.0,57.6,30.10,NW,315,0.0,0.0,95,0.00,,,0.24,meteohub,2013-02-09 03:52:00,
2013-02-08 22:55:00,58.8,57.7,30.10,NW,315,0.0,0.0,96,0.00,,,0.24,meteohub,2013-02-09 03:55:00,
2013-02-08 22:56:00,58.8,57.7,30.10,NW,315,0.0,0.0,96,0.00,,,0.24,meteohub,2013-02-09 03:56:00,
2013-02-08 22:57:00,58.8,57.7,30.11,NW,315,0.0,0.0,96,0.00,,,0.24,meteohub,2013-02-09 03:57:00,
2013-02-08 23:00:00,58.8,57.7,30.11,NW,315,0.0,0.0,96,0.00,,,0.24,meteohub,2013-02-09 04:00:00,
2013-02-08 23:01:00,58.8,57.7,30.11,NW,315,0.0,0.0,96,0.00,,,0.24,meteohub,2013-02-09 04:01:00,
2013-02-08 23:02:00,58.8,57.7,30.11,NW,315,0.0,0.0,96,0.00,,,0.24,meteohub,2013-02-09 04:02:00,
2013-02-08 23:05:00,58.6,57.6,30.11,NW,315,0.0,0.0,96,0.00,,,0.24,meteohub,2013-02-09 04:05:00,
2013-02-08 23:07:00,58.6,57.6,30.11,NW,315,0.0,0.0,96,0.00,,,0.24,meteohub,2013-02-09 04:07:00,
2013-02-08 23:08:00,58.6,57.6,30.10,NW,315,0.0,0.0,96,0.00,,,0.24,meteohub,2013-02-09 04:08:00,
2013-02-08 23:12:00,58.6,57.6,30.11,NW,315,0.0,0.0,96,0.00,,,0.24,meteohub,2013-02-09 04:12:00,
2013-02-08 23:13:00,58.6,57.6,30.11,NW,315,0.0,0.0,96,0.00,,,0.24,meteohub,2013-02-09 04:13:00,
2013-02-08 23:14:00,58.5,57.4,30.11,NW,315,0.0,0.0,96,0.00,,,0.24,meteohub,2013-02-09 04:14:00,
2013-02-08 23:17:00,58.5,57.4,30.11,NW,315,0.0,1.0,96,0.00,,,0.24,meteohub,2013-02-09 04:17:00,
2013-02-08 23:18:00,58.5,57.4,30.11,North,0,1.0,1.0,96,0.00,,,0.24,meteohub,2013-02-09 04:18:00,
2013-02-08 23:19:00,58.3,57.2,30.11,North,0,2.0,2.0,96,0.00,,,0.24,meteohub,2013-02-09 04:19:00,
2013-02-08 23:20:00,58.3,57.2,30.11,North,0,1.0,1.0,96,0.00,,,0.24,meteohub,2013-02-09 04:20:00,
2013-02-08 23:23:00,58.5,57.4,30.11,North,0,2.0,2.0,96,0.00,,,0.24,meteohub,2013-02-09 04:23:00,
2013-02-08 23:24:00,58.5,57.4,30.11,North,0,2.0,2.0,96,0.00,,,0.24,meteohub,2013-02-09 04:24:00,
2013-02-08 23:25:00,58.6,57.6,30.11,North,0,2.0,2.0,96,0.00,,,0.24,meteohub,2013-02-09 04:25:00,
2013-02-08 23:28:00,58.8,57.9,30.11,North,0,1.0,2.0,97,0.00,,,0.24,meteohub,2013-02-09 04:28:00,
2013-02-08 23:29:00,59.0,57.9,30.11,North,0,2.0,2.0,96,0.00,,,0.24,meteohub,2013-02-09 04:29:00,
2013-02-08 23:32:00,59.0,57.9,30.11,North,0,2.0,2.0,96,0.00,,,0.24,meteohub,2013-02-09 04:32:00,
2013-02-08 23:35:00,59.2,58.1,30.11,North,0,2.0,2.0,96,0.00,,,0.24,meteohub,2013-02-09 04:35:00,
2013-02-08 23:36:00,59.4,58.3,30.11,North,0,2.0,2.0,96,0.00,,,0.24,meteohub,2013-02-09 04:36:00,
2013-02-08 23:37:00,59.4,58.3,30.11,North,0,2.0,2.0,96,0.00,,,0.24,meteohub,2013-02-09 04:37:00,
2013-02-08 23:40:00,59.4,58.3,30.11,North,0,1.0,2.0,96,0.00,,,0.24,meteohub,2013-02-09 04:40:00,
2013-02-08 23:41:00,59.4,58.3,30.11,North,0,1.0,2.0,96,0.00,,,0.24,meteohub,2013-02-09 04:41:00,
2013-02-08 23:42:00,59.4,58.3,30.11,North,0,1.0,2.0,96,0.00,,,0.24,meteohub,2013-02-09 04:42:00,
2013-02-08 23:45:00,59.4,58.5,30.11,North,0,2.0,2.0,97,0.00,,,0.24,meteohub,2013-02-09 04:45:00,
2013-02-08 23:47:00,59.5,58.6,30.11,North,0,2.0,2.0,97,0.00,,,0.24,meteohub,2013-02-09 04:47:00,
2013-02-08 23:48:00,59.5,58.6,30.11,North,0,2.0,2.0,97,0.00,,,0.24,meteohub,2013-02-09 04:48:00,
2013-02-08 23:50:00,59.5,58.6,30.10,East,90,0.0,2.0,97,0.00,,,0.24,meteohub,2013-02-09 04:50:00,
2013-02-08 23:51:00,59.5,58.6,30.10,NE,45,1.0,2.0,97,0.00,,,0.24,meteohub,2013-02-09 04:51:00,
2013-02-08 23:53:00,59.5,58.6,30.10,NE,45,0.0,2.0,97,0.00,,,0.24,meteohub,2013-02-09 04:53:00,
2013-02-08 23:56:00,59.4,58.5,30.11,North,0,1.0,2.0,97,0.00,,,0.24,meteohub,2013-02-09 04:56:00,
2013-02-08 23:57:00,59.4,58.5,30.11,North,0,1.0,2.0,97,0.00,,,0.24,meteohub,2013-02-09 04:57:00,
2013-02-08 23:58:00,59.4,58.5,30.11,East,90,0.0,2.0,97,0.00,,,0.24,meteohub,2013-02-09 04:58:00,